M I D A S
Marine Information and Data Acquisition System
Tripno 1560 of the Zeeleeuw from 2008-09-05 06:16:24 to 2008-09-05 16:24:15
Back to CruiseResearch ActivitiesStationsMapUnderway DataData graphs

EquipmentUnitsComment
TimeDGPSUTC
LatitudeDGPSDM.mWGS84
LongitudeDGPSDM.mWGS84
TemperatureSBE03/SBE38deg celciusITS90
ConductivitySBE21S/mITS90
SalinitySBE21 Practical Salinity Units
ChlorophylAChelsea fluorimeterg/lCalibrated in Aceton
Missing or incorrect values are displayed as -999
Sea surface data collected by the RV Zeeleeuw from 2008-09-05 06:15:47 to 2008-09-05 16:25:32
                                                                                    Next 1000 lines
Time Latitude Longitude Temperature Conductivity Salinity ChlorophylA
2008-09-05 06:15:57 51°13.622 2°56.044 20.3654 0.014217 0.075729 -1.209513
2008-09-05 06:16:02 51°13.622 2°56.042 20.4142 0.014217 0.075729 -1.209513
2008-09-05 06:16:07 51°13.623 2°56.039 20.393 0.014217 0.075731 -1.209513
2008-09-05 06:16:12 51°13.623 2°56.036 20.4337 0.014217 0.075732 -1.209513
2008-09-05 06:16:17 51°13.624 2°56.032 20.412 0.014217 0.075732 -1.209513
2008-09-05 06:16:22 51°13.625 2°56.028 20.4252 0.014217 0.075733 -1.209513
2008-09-05 06:16:27 51°13.626 2°56.024 20.4221 0.014217 0.075734 -1.209513
2008-09-05 06:16:32 51°13.627 2°56.019 20.4042 0.014217 0.075734 -1.209513
2008-09-05 06:16:37 51°13.628 2°56.014 20.3953 0.014217 0.075736 -1.209513
2008-09-05 06:16:42 51°13.629 2°56.008 20.4197 0.014217 0.075736 -1.209513
2008-09-05 06:16:47 51°13.631 2°56.002 20.4156 0.014217 0.075739 -1.209513
2008-09-05 06:16:52 51°13.632 2°55.996 20.4246 0.014217 0.07574 -1.209513
2008-09-05 06:16:57 51°13.633 2°55.99 20.4221 0.014217 0.075742 -1.209513
2008-09-05 06:17:02 51°13.635 2°55.983 20.4283 0.014217 0.075742 -1.209513
2008-09-05 06:17:07 51°13.637 2°55.975 20.4 0.014217 0.075744 -1.209513
2008-09-05 06:17:12 51°13.639 2°55.968 20.4323 0.014217 0.075745 -1.209513
2008-09-05 06:17:17 51°13.641 2°55.959 20.4229 0.014217 0.075747 -1.209513
2008-09-05 06:17:22 51°13.644 2°55.951 20.4258 0.014217 0.075748 -1.209513
2008-09-05 06:17:27 51°13.646 2°55.943 20.4341 0.014217 0.075749 -1.209513
2008-09-05 06:17:32 51°13.649 2°55.934 20.4424 0.014217 0.075749 -1.209513
2008-09-05 06:17:37 51°13.651 2°55.925 20.452 0.014217 0.07575 -1.209513
2008-09-05 06:17:42 51°13.654 2°55.916 20.4555 0.014217 0.075751 -1.209513
2008-09-05 06:17:47 51°13.657 2°55.907 20.4582 0.014217 0.075752 -1.209513
2008-09-05 06:17:52 51°13.659 2°55.898 20.4518 0.014217 0.075753 -1.209513
2008-09-05 06:17:57 51°13.662 2°55.889 20.4504 0.014217 0.075754 -1.209513
2008-09-05 06:18:02 51°13.665 2°55.88 20.4474 0.014217 0.075754 -1.209513
2008-09-05 06:18:07 51°13.668 2°55.871 20.4637 0.014217 0.075754 -1.209513
2008-09-05 06:18:12 51°13.67 2°55.862 20.4595 0.014217 0.075755 -1.209513
2008-09-05 06:18:17 51°13.672 2°55.854 20.4603 0.014217 0.075756 -1.209513
2008-09-05 06:18:22 51°13.674 2°55.845 20.4534 0.014217 0.075757 -1.209513
2008-09-05 06:18:27 51°13.676 2°55.837 20.4601 0.014217 0.075758 -1.209513
2008-09-05 06:18:32 51°13.678 2°55.829 20.4549 0.014217 0.075758 -1.209513
2008-09-05 06:18:37 51°13.68 2°55.821 20.459 0.014217 0.075759 -1.209513
2008-09-05 06:18:42 51°13.682 2°55.814 20.457 0.014217 0.075761 -1.209513
2008-09-05 06:18:47 51°13.684 2°55.806 20.4586 0.014217 0.075762 -1.209513
2008-09-05 06:18:52 51°13.685 2°55.799 20.4565 0.014217 0.075763 -1.209513
2008-09-05 06:18:57 51°13.686 2°55.791 20.4511 0.014217 0.075764 -1.209513
2008-09-05 06:19:02 51°13.688 2°55.784 20.4513 0.014217 0.075764 -1.209513
2008-09-05 06:19:07 51°13.689 2°55.777 20.4458 0.014217 0.075766 -1.209513
2008-09-05 06:19:12 51°13.689 2°55.77 20.4563 0.014217 0.075767 -1.209513
2008-09-05 06:19:17 51°13.69 2°55.763 20.4579 0.014217 0.075767 -1.209513
2008-09-05 06:19:22 51°13.69 2°55.757 20.455 0.014217 0.075768 -1.209513
2008-09-05 06:19:27 51°13.69 2°55.751 20.4512 0.014217 0.075768 -1.209513
2008-09-05 06:19:32 51°13.691 2°55.745 20.4564 0.014217 0.075768 -1.209513
2008-09-05 06:19:37 51°13.691 2°55.739 20.4409 0.014217 0.07577 -1.209513
2008-09-05 06:19:42 51°13.69 2°55.734 20.4366 0.014217 0.07577 -1.209513
2008-09-05 06:19:47 51°13.69 2°55.73 20.4673 0.014217 0.07577 -1.209513
2008-09-05 06:19:52 51°13.69 2°55.726 20.4644 0.014217 0.075772 -1.209513
2008-09-05 06:19:57 51°13.69 2°55.723 20.4686 0.014217 0.075773 -1.209513
2008-09-05 06:20:02 51°13.69 2°55.72 20.4713 0.014217 0.075773 -1.209513
2008-09-05 06:20:07 51°13.69 2°55.718 20.474 0.014217 0.075773 -1.209513
2008-09-05 06:20:12 51°13.69 2°55.716 20.4732 0.014217 0.075774 -1.209513
2008-09-05 06:20:17 51°13.69 2°55.715 20.4651 0.014217 0.075774 -1.209513
2008-09-05 06:20:22 51°13.691 2°55.715 20.4683 0.014217 0.075775 -1.209513
2008-09-05 06:20:27 51°13.691 2°55.715 20.4749 0.014217 0.075776 -1.209513
2008-09-05 06:20:32 51°13.692 2°55.715 20.4852 0.014217 0.075776 -1.209513
2008-09-05 06:20:37 51°13.693 2°55.716 20.4905 0.014217 0.075777 -1.209513
2008-09-05 06:20:42 51°13.694 2°55.717 20.4858 0.014217 0.075778 -1.209513
2008-09-05 06:20:47 51°13.695 2°55.719 20.488 0.014217 0.075779 -1.209513
2008-09-05 06:20:52 51°13.697 2°55.72 20.4884 0.014217 0.075779 -1.209513
2008-09-05 06:20:57 51°13.699 2°55.722 20.4889 0.014217 0.075781 -1.209513
2008-09-05 06:21:02 51°13.701 2°55.724 20.5046 0.014217 0.075781 -1.209513
2008-09-05 06:21:07 51°13.704 2°55.726 20.526 0.014217 0.075782 -1.209513
2008-09-05 06:21:12 51°13.707 2°55.727 20.5375 0.014217 0.075783 -1.209513
2008-09-05 06:21:17 51°13.711 2°55.728 20.5419 0.014217 0.075785 -1.209513
2008-09-05 06:21:22 51°13.715 2°55.729 20.5434 0.014217 0.075786 -1.209513
2008-09-05 06:21:27 51°13.72 2°55.728 20.5456 0.014217 0.075787 -1.209513
2008-09-05 06:21:32 51°13.725 2°55.726 20.5409 0.014217 0.075787 -1.209513
2008-09-05 06:21:37 51°13.73 2°55.724 20.5461 0.014217 0.075789 -1.209513
2008-09-05 06:21:42 51°13.736 2°55.72 20.5427 0.014217 0.07579 -1.209513
2008-09-05 06:21:47 51°13.743 2°55.715 20.5149 0.014217 0.07579 -1.209513
2008-09-05 06:21:52 51°13.749 2°55.709 20.5112 0.014217 0.075791 -1.209513
2008-09-05 06:21:57 51°13.757 2°55.702 20.4717 0.014217 0.075791 -1.209513
2008-09-05 06:22:02 51°13.764 2°55.695 20.4488 0.014217 0.075791 -1.209513
2008-09-05 06:22:07 51°13.772 2°55.688 20.4322 0.014217 0.075791 -1.209513
2008-09-05 06:22:12 51°13.78 2°55.68 20.4392 0.014217 0.07579 -1.209513
2008-09-05 06:22:17 51°13.789 2°55.672 20.3999 0.014217 0.075791 -1.209513
2008-09-05 06:22:22 51°13.798 2°55.665 20.4095 0.014217 0.075791 -1.209513
2008-09-05 06:22:27 51°13.807 2°55.656 20.4113 0.014217 0.075792 -1.209513
2008-09-05 06:22:32 51°13.816 2°55.649 20.4402 0.014217 0.075792 -1.209513
2008-09-05 06:22:36 51°13.824 2°55.643 20.4325 0.014217 0.075795 -1.209513
2008-09-05 06:22:36 51°13.824 2°55.643 20.4333 0.014217 0.075794 -1.209513
2008-09-05 06:22:47 51°13.846 2°55.625 20.4366 0.014217 0.075797 -1.209513
2008-09-05 06:22:52 51°13.857 2°55.617 20.4301 0.014217 0.075799 -1.209513
2008-09-05 06:22:57 51°13.867 2°55.61 20.4425 0.014217 0.075802 -1.209513
2008-09-05 06:23:02 51°13.878 2°55.602 20.4436 0.014217 0.075802 -1.209513
2008-09-05 06:23:05 51°13.884 2°55.598 20.3862 0.014217 0.075808 -1.209513
2008-09-05 06:23:12 51°13.899 2°55.588 20.4537 0.014217 0.075812 -1.209513
2008-09-05 06:23:17 51°13.91 2°55.58 20.4543 0.014217 0.075819 -1.209513
2008-09-05 06:23:22 51°13.921 2°55.572 20.4359 0.014217 0.075824 -1.209513
2008-09-05 06:23:27 51°13.932 2°55.565 20.4329 0.014217 0.075827 -1.209513
2008-09-05 06:23:32 51°13.942 2°55.557 20.4486 0.014217 0.075827 -1.209513
2008-09-05 06:23:37 51°13.953 2°55.549 20.443 0.014217 0.075832 -1.209513
2008-09-05 06:23:42 51°13.964 2°55.541 20.3872 0.014217 0.075837 -1.209513
2008-09-05 06:23:47 51°13.975 2°55.533 20.3964 0.014217 0.075838 -1.209513
2008-09-05 06:23:52 51°13.986 2°55.525 20.3969 0.014217 0.07584 -1.209513
2008-09-05 06:23:57 51°13.997 2°55.518 20.4317 0.014217 0.075842 -1.209513
2008-09-05 06:24:02 51°14.008 2°55.509 20.4666 0.014217 0.075842 -1.209513
2008-09-05 06:24:07 51°14.019 2°55.501 20.4423 0.014217 0.075844 -1.209513
2008-09-05 06:24:12 51°14.03 2°55.492 20.4377 0.014217 0.075846 -1.209513
2008-09-05 06:24:17 51°14.041 2°55.484 20.4395 0.014217 0.075847 -1.209513
2008-09-05 06:24:22 51°14.051 2°55.475 20.4459 0.014217 0.075847 -1.209513
2008-09-05 06:24:27 51°14.062 2°55.466 20.4546 0.014217 0.075848 -1.209513
2008-09-05 06:24:32 51°14.073 2°55.457 20.4466 0.014217 0.075848 -1.209513
2008-09-05 06:24:37 51°14.084 2°55.448 20.4138 0.014217 0.075848 -1.209513
2008-09-05 06:24:42 51°14.095 2°55.439 20.4531 0.014217 0.075847 -1.209513
2008-09-05 06:24:47 51°14.106 2°55.43 20.4727 0.014217 0.075847 -1.209513
2008-09-05 06:24:52 51°14.117 2°55.421 20.4607 0.014217 0.075847 -1.209513
2008-09-05 06:24:57 51°14.128 2°55.412 20.4731 0.014217 0.075847 -1.209513
2008-09-05 06:25:02 51°14.139 2°55.402 20.4762 0.014217 0.075847 -1.209513
2008-09-05 06:25:07 51°14.15 2°55.392 20.492 0.014217 0.075846 -1.209513
2008-09-05 06:25:12 51°14.16 2°55.381 20.5069 0.014217 0.075847 -1.209513
2008-09-05 06:25:17 51°14.17 2°55.37 20.4931 0.014217 0.075847 -1.209513
2008-09-05 06:25:22 51°14.181 2°55.359 20.4871 0.014217 0.075847 -1.209513
2008-09-05 06:25:27 51°14.191 2°55.347 20.5002 0.014217 0.075846 -1.209513
2008-09-05 06:25:32 51°14.201 2°55.335 20.4897 0.014217 0.075846 -1.209513
2008-09-05 06:25:37 51°14.21 2°55.322 20.4966 0.014217 0.075846 -1.209513
2008-09-05 06:25:42 51°14.22 2°55.309 20.5185 0.014217 0.075845 -1.209513
2008-09-05 06:25:47 51°14.229 2°55.295 20.4684 0.014217 0.075844 -1.209513
2008-09-05 06:25:52 51°14.238 2°55.282 20.4873 0.014217 0.075844 -1.209513
2008-09-05 06:25:57 51°14.247 2°55.267 20.4648 0.014217 0.075843 -1.209513
2008-09-05 06:26:02 51°14.256 2°55.253 20.4784 0.014217 0.075843 -1.209513
2008-09-05 06:26:07 51°14.265 2°55.238 20.4516 0.014217 0.075842 -1.209513
2008-09-05 06:26:12 51°14.274 2°55.224 20.4588 0.014217 0.075842 -1.209513
2008-09-05 06:26:17 51°14.282 2°55.209 20.4692 0.014217 0.075841 -1.209513
2008-09-05 06:26:22 51°14.291 2°55.193 20.4876 0.014217 0.075841 -1.209513
2008-09-05 06:26:27 51°14.299 2°55.178 20.4433 0.014217 0.075842 -1.209513
2008-09-05 06:26:32 51°14.308 2°55.162 20.4699 0.014217 0.075842 -1.209513
2008-09-05 06:26:37 51°14.316 2°55.146 20.4705 0.014217 0.075842 -1.209513
2008-09-05 06:26:42 51°14.324 2°55.13 20.4644 0.014217 0.075842 -1.209513
2008-09-05 06:26:47 51°14.332 2°55.114 20.4547 0.014217 0.075843 -1.209513
2008-09-05 06:26:52 51°14.34 2°55.098 20.4711 0.014217 0.075843 -1.209513
2008-09-05 06:26:57 51°14.348 2°55.082 20.4458 0.014217 0.075844 -1.209513
2008-09-05 06:27:02 51°14.355 2°55.065 20.4589 0.014217 0.075844 -1.209513
2008-09-05 06:27:07 51°14.363 2°55.048 20.4939 0.014217 0.075845 -1.209513
2008-09-05 06:27:12 51°14.371 2°55.031 20.4833 0.014217 0.075846 -1.209513
2008-09-05 06:27:17 51°14.378 2°55.014 20.4813 0.014217 0.075847 -1.209513
2008-09-05 06:27:22 51°14.385 2°54.996 20.4885 0.014217 0.075848 -1.209513
2008-09-05 06:27:27 51°14.392 2°54.978 20.4751 0.014217 0.075849 -1.209513
2008-09-05 06:27:32 51°14.399 2°54.96 20.4768 0.014217 0.075849 -1.209513
2008-09-05 06:27:37 51°14.405 2°54.941 20.4102 0.014217 0.07585 -1.209513
2008-09-05 06:27:42 51°14.413 2°54.923 20.3527 0.014217 0.07585 -1.209513
2008-09-05 06:27:47 51°14.421 2°54.905 20.3795 0.014217 0.07585 -1.174688
2008-09-05 06:27:52 51°14.43 2°54.887 20.404 0.014217 0.075851 -1.209513
2008-09-05 06:27:57 51°14.439 2°54.87 20.3679 0.014217 0.075852 -1.209513
2008-09-05 06:28:02 51°14.448 2°54.854 20.4047 0.014217 0.075852 -1.209513
2008-09-05 06:28:07 51°14.458 2°54.838 20.4392 0.014217 0.075853 -1.209513
2008-09-05 06:28:12 51°14.468 2°54.823 20.4028 0.014217 0.075854 -1.209513
2008-09-05 06:28:17 51°14.478 2°54.808 20.3892 0.014217 0.075855 -1.209513
2008-09-05 06:28:22 51°14.489 2°54.793 20.4216 0.014217 0.075857 -1.209513
2008-09-05 06:28:27 51°14.5 2°54.778 20.4179 0.014217 0.075858 -1.174688
2008-09-05 06:28:32 51°14.511 2°54.764 20.4308 0.014217 0.075858 -1.174688
2008-09-05 06:28:37 51°14.522 2°54.749 20.3985 0.014217 0.075861 -1.209513
2008-09-05 06:28:42 51°14.533 2°54.735 20.3978 0.014217 0.075862 -1.209513
2008-09-05 06:28:47 51°14.545 2°54.721 20.4384 0.014217 0.075865 -1.209513
2008-09-05 06:28:52 51°14.556 2°54.707 20.4027 0.014217 0.075866 -1.209513
2008-09-05 06:28:57 51°14.567 2°54.694 20.4266 0.014217 0.075868 -1.209513
2008-09-05 06:29:02 51°14.579 2°54.68 20.3738 0.014217 0.075868 -1.209513
2008-09-05 06:29:07 51°14.591 2°54.668 20.3787 0.014217 0.075868 -1.209513
2008-09-05 06:29:12 51°14.603 2°54.655 20.3946 0.014217 0.075869 -1.209513
2008-09-05 06:29:17 51°14.615 2°54.642 20.3839 0.014217 0.07587 -1.209513
2008-09-05 06:29:22 51°14.627 2°54.63 20.4283 0.014217 0.075871 -1.174688
2008-09-05 06:29:27 51°14.64 2°54.619 20.4337 0.014217 0.075871 -1.209513
2008-09-05 06:29:32 51°14.652 2°54.607 20.4261 0.014217 0.075871 -1.209513
2008-09-05 06:29:37 51°14.664 2°54.595 20.4282 0.014217 0.075872 -1.209513
2008-09-05 06:29:42 51°14.677 2°54.584 20.4087 0.014217 0.075873 -1.209513
2008-09-05 06:29:47 51°14.689 2°54.572 20.4274 0.014217 0.075875 -1.209513
2008-09-05 06:29:52 51°14.702 2°54.56 20.404 0.014217 0.075876 -1.209513
2008-09-05 06:29:57 51°14.714 2°54.549 20.4196 0.014217 0.075877 -1.209513
2008-09-05 06:30:02 51°14.726 2°54.537 20.4425 0.014217 0.075877 -1.209513
2008-09-05 06:30:07 51°14.738 2°54.524 20.4116 0.014217 0.075878 -1.209513
2008-09-05 06:30:12 51°14.75 2°54.512 20.4223 0.014217 0.075878 -1.209513
2008-09-05 06:30:17 51°14.763 2°54.501 20.4247 0.014217 0.075879 -1.209513
2008-09-05 06:30:22 51°14.775 2°54.489 20.4115 0.014217 0.07588 -1.209513
2008-09-05 06:30:27 51°14.787 2°54.477 20.4375 0.014217 0.07588 -1.209513
2008-09-05 06:30:32 51°14.8 2°54.465 20.4238 0.014217 0.07588 -1.209513
2008-09-05 06:30:37 51°14.813 2°54.453 20.4281 0.014217 0.075881 -1.209513
2008-09-05 06:30:42 51°14.826 2°54.442 20.4214 0.014217 0.075882 -1.209513
2008-09-05 06:30:47 51°14.838 2°54.43 20.4375 0.014217 0.075882 -1.209513
2008-09-05 06:30:52 51°14.852 2°54.419 20.4344 0.014114 0.075365 -1.209513
2008-09-05 06:30:57 51°14.865 2°54.407 20.4413 0.014217 0.075884 -1.209513
2008-09-05 06:31:02 51°14.877 2°54.395 20.432 0.014217 0.075884 -1.209513
2008-09-05 06:31:07 51°14.89 2°54.382 20.4105 0.014217 0.075885 -1.209513
2008-09-05 06:31:12 51°14.904 2°54.37 20.4199 0.014217 0.075885 -1.209513
2008-09-05 06:31:17 51°14.917 2°54.358 20.3659 0.014217 0.075886 -1.209513
2008-09-05 06:31:22 51°14.93 2°54.345 20.3805 0.014217 0.075886 -1.209513
2008-09-05 06:31:27 51°14.943 2°54.333 20.4054 0.014217 0.075887 -1.209513
2008-09-05 06:31:32 51°14.957 2°54.321 20.335 0.014217 0.075887 -1.209513
2008-09-05 06:31:37 51°14.97 2°54.309 18.6473 0.029035 0.152452 -1.174688
2008-09-05 06:31:42 51°14.984 2°54.297 18.3044 0.1373 0.757882 -0.965744
2008-09-05 06:31:47 51°14.997 2°54.285 17.9711 2.207675 14.708229 -0.338911
2008-09-05 06:31:52 51°15.011 2°54.273 17.8028 3.764746 26.359752 3.178318
2008-09-05 06:31:57 51°15.025 2°54.261 17.6568 3.884176 27.300095 3.143494
2008-09-05 06:32:02 51°15.039 2°54.249 17.6128 3.884176 27.300095 3.143494
2008-09-05 06:32:07 51°15.053 2°54.237 17.5563 3.978956 28.226515 2.621133
2008-09-05 06:32:12 51°15.067 2°54.225 17.5353 4.097515 29.585167 2.447013
2008-09-05 06:32:17 51°15.08 2°54.213 17.5474 4.265184 31.380673 2.551485
2008-09-05 06:32:22 51°15.094 2°54.201 17.518 4.345411 32.370049 2.377365
2008-09-05 06:32:27 51°15.108 2°54.188 17.5005 4.378422 32.936626 2.272893
2008-09-05 06:32:32 51°15.122 2°54.176 17.4754 4.378422 32.936626 2.272893
2008-09-05 06:32:37 51°15.136 2°54.164 17.4737 4.381124 33.12384 2.203245
2008-09-05 06:32:42 51°15.151 2°54.152 17.4884 4.382682 33.239738 2.168421
2008-09-05 06:32:47 51°15.165 2°54.14 17.4728 4.389223 33.377912 2.168421
2008-09-05 06:32:52 51°15.179 2°54.128 17.485 4.387252 33.410824 2.063949
2008-09-05 06:32:57 51°15.194 2°54.116 17.4654 4.414344 33.684619 2.063949
2008-09-05 06:33:02 51°15.208 2°54.104 17.4648 4.414344 33.684619 2.063949
2008-09-05 06:33:07 51°15.222 2°54.091 17.4594 4.421715 33.77341 2.063949
2008-09-05 06:33:12 51°15.236 2°54.079 17.4415 4.419951 33.775587 2.029124
2008-09-05 06:33:17 51°15.251 2°54.066 17.4362 4.423584 33.82062 1.959476
2008-09-05 06:33:22 51°15.265 2°54.054 17.4467 4.421716 33.813283 1.9943
2008-09-05 06:33:27 51°15.279 2°54.041 17.4273 4.424934 33.851479 1.959476
2008-09-05 06:33:32 51°15.294 2°54.029 17.4182 4.424934 33.851479 1.959476
2008-09-05 06:33:37 51°15.308 2°54.016 17.4059 4.41528 33.773506 1.9943
2008-09-05 06:33:42 51°15.322 2°54.004 17.4062 4.41746 33.800816 1.959476
2008-09-05 06:33:47 51°15.336 2°53.991 17.3947 4.422028 33.847923 1.959476
2008-09-05 06:33:52 51°15.351 2°53.979 17.3945 4.429917 33.922189 1.924652
2008-09-05 06:33:57 51°15.365 2°53.966 17.3801 4.411751 33.777222 1.9943
2008-09-05 06:34:02 51°15.379 2°53.954 17.3774 4.411751 33.777222 1.9943
2008-09-05 06:34:07 51°15.394 2°53.941 17.3812 4.420575 33.863499 2.029124
2008-09-05 06:34:12 51°15.408 2°53.928 17.3661 4.432513 33.972551 2.063949
2008-09-05 06:34:17 51°15.423 2°53.915 17.3731 4.420471 33.877308 2.063949
2008-09-05 06:34:22 51°15.437 2°53.902 17.3647 4.432513 33.991327 2.133597
2008-09-05 06:34:27 51°15.452 2°53.889 17.3567 4.416839 33.864195 2.168421
2008-09-05 06:34:32 51°15.467 2°53.876 17.3669 4.416839 33.864195 2.168421
2008-09-05 06:34:37 51°15.482 2°53.863 17.3467 4.431994 34.003654 2.168421
2008-09-05 06:34:42 51°15.496 2°53.85 17.3482 4.434486 34.030425 2.272893
2008-09-05 06:34:47 51°15.511 2°53.837 17.3433 4.428465 33.983419 2.342541
2008-09-05 06:34:52 51°15.526 2°53.823 17.3366 4.427219 33.97675 2.342541
2008-09-05 06:34:57 51°15.54 2°53.81 17.3423 4.430957 34.013553 2.377365
2008-09-05 06:35:02 51°15.555 2°53.797 17.3461 4.430957 34.013553 2.377365
2008-09-05 06:35:07 51°15.57 2°53.784 17.3446 4.427116 33.983245 2.412189
2008-09-05 06:35:12 51°15.585 2°53.771 17.3376 4.425663 33.978149 2.481837
2008-09-05 06:35:17 51°15.6 2°53.758 17.3414 4.424625 33.97326 2.586309
2008-09-05 06:35:22 51°15.615 2°53.745 17.3363 4.421614 33.954109 2.516661
2008-09-05 06:35:27 51°15.63 2°53.732 17.3339 4.436563 34.085972 2.551485
2008-09-05 06:35:32 51°15.644 2°53.719 17.3396 4.436563 34.085972 2.551485
2008-09-05 06:35:37 51°15.659 2°53.706 17.3427 4.429711 34.028411 2.621133
2008-09-05 06:35:42 51°15.674 2°53.693 17.3408 4.416113 33.912202 2.621133
2008-09-05 06:35:47 51°15.689 2°53.68 17.3378 4.437289 34.096942 2.690782
2008-09-05 06:35:52 51°15.704 2°53.667 17.3293 4.429919 34.034235 2.830078
2008-09-05 06:35:57 51°15.719 2°53.654 17.3369 4.426805 34.010151 2.864902
2008-09-05 06:36:02 51°15.734 2°53.641 17.3322 4.426805 34.010151 2.864902
2008-09-05 06:36:07 51°15.748 2°53.627 17.3385 4.414037 33.90107 2.93455
2008-09-05 06:36:12 51°15.763 2°53.613 17.3388 4.434487 34.076209 3.004198
2008-09-05 06:36:17 51°15.778 2°53.6 17.336 4.416009 33.917349 3.10867
2008-09-05 06:36:22 51°15.793 2°53.586 17.3471 4.435109 34.084263 3.143494
2008-09-05 06:36:27 51°15.808 2°53.573 17.3421 4.42722 34.01776 3.247966
2008-09-05 06:36:32 51°15.822 2°53.56 17.3453 4.42722 34.01776 3.247966
2008-09-05 06:36:37 51°15.837 2°53.546 17.337 4.414764 33.91134 3.28279
2008-09-05 06:36:42 51°15.852 2°53.532 17.3444 4.428881 34.03339 3.317614
2008-09-05 06:36:47 51°15.867 2°53.518 17.3409 4.436355 34.097003 3.387263
2008-09-05 06:36:52 51°15.881 2°53.505 17.343 4.439885 34.127367 3.491735
2008-09-05 06:36:57 51°15.895 2°53.49 17.3437 4.436667 34.096308 3.526559
2008-09-05 06:37:02 51°15.91 2°53.476 17.3427 4.436667 34.096308 3.526559
2008-09-05 06:37:07 51°15.924 2°53.461 17.3399 4.436459 34.094522 3.665855
2008-09-05 06:37:12 51°15.939 2°53.447 17.3412 4.435525 34.087161 3.700679
2008-09-05 06:37:17 51°15.953 2°53.432 17.3472 4.431891 34.056585 3.770327
2008-09-05 06:37:22 51°15.968 2°53.418 17.3485 4.424417 33.992315 3.770327
2008-09-05 06:37:27 51°15.983 2°53.405 17.3435 4.432307 34.060156 3.909623
2008-09-05 06:37:32 51°15.998 2°53.393 17.3455 4.432307 34.060156 3.909623
2008-09-05 06:37:37 51°16.013 2°53.38 17.3426 4.432618 34.062835 4.014096
2008-09-05 06:37:42 51°16.028 2°53.369 17.3445 4.437912 34.109048 4.118568
2008-09-05 06:37:47 51°16.044 2°53.357 17.3482 4.445387 34.173356 4.118568
2008-09-05 06:37:52 51°16.059 2°53.345 17.3443 4.437082 34.100554 4.327512
2008-09-05 06:37:57 51°16.075 2°53.334 17.347 4.443518 34.155249 4.466808
2008-09-05 06:38:02 51°16.09 2°53.323 17.3506 4.443518 34.155249 4.466808
2008-09-05 06:38:07 51°16.105 2°53.311 17.3555 4.434902 34.081803 4.536456
2008-09-05 06:38:12 51°16.121 2°53.299 17.351 4.445698 34.175359 4.501632
2008-09-05 06:38:17 51°16.136 2°53.287 17.3545 4.441338 34.136493 4.57128
2008-09-05 06:38:22 51°16.151 2°53.275 17.3478 4.438328 34.10992 4.640929
2008-09-05 06:38:27 51°16.166 2°53.263 17.3509 4.441649 34.139173 4.745401
2008-09-05 06:38:32 51°16.181 2°53.251 17.3452 4.441649 34.139173 4.745401
2008-09-05 06:38:37 51°16.197 2°53.238 17.3476 4.425559 34.000114 4.780225
2008-09-05 06:38:42 51°16.212 2°53.226 17.3477 4.443414 34.153004 4.815049
2008-09-05 06:38:47 51°16.227 2°53.214 17.3469 4.441857 34.138932 4.849873
2008-09-05 06:38:52 51°16.242 2°53.202 17.3457 4.442376 34.143397 4.884697
2008-09-05 06:38:57 51°16.257 2°53.19 17.3432 4.430438 34.040719 4.954345
2008-09-05 06:39:02 51°16.272 2°53.177 17.3446 4.430438 34.040719 4.954345
2008-09-05 06:39:07 51°16.287 2°53.165 17.3459 4.435109 34.08224 5.058817
2008-09-05 06:39:12 51°16.303 2°53.153 17.3458 4.440715 34.13181 5.058817
2008-09-05 06:39:17 51°16.318 2°53.141 17.3446 4.430957 34.047877 5.058817
2008-09-05 06:39:22 51°16.333 2°53.129 17.3446 4.440715 34.132486 5.232937
2008-09-05 06:39:27 51°16.349 2°53.117 17.3429 4.427739 34.02155 5.267761
2008-09-05 06:39:32 51°16.364 2°53.105 17.3463 4.427739 34.02155 5.267761
2008-09-05 06:39:37 51°16.379 2°53.093 17.3444 4.439158 34.12044 5.372234
2008-09-05 06:39:42 51°16.395 2°53.081 17.3444 4.446736 34.186322 5.441882
2008-09-05 06:39:47 51°16.41 2°53.07 17.3416 4.4403 34.13094 5.581178
2008-09-05 06:39:52 51°16.426 2°53.059 17.3373 4.445283 34.175168 5.616002
2008-09-05 06:39:57 51°16.442 2°53.048 17.3319 4.430023 34.043884 5.650826
2008-09-05 06:40:02 51°16.458 2°53.038 17.334 4.430023 34.043884 5.650826
2008-09-05 06:40:07 51°16.473 2°53.027 17.3376 4.443518 34.160657 5.68565
2008-09-05 06:40:12 51°16.489 2°53.016 17.3327 4.450162 34.21716 5.755298
2008-09-05 06:40:17 51°16.505 2°53.006 17.33 4.437601 34.11042 5.790122
2008-09-05 06:40:22 51°16.52 2°52.995 17.3296 4.445906 34.183234 5.85977
2008-09-05 06:40:27 51°16.536 2°52.984 17.3254 4.450058 34.220331 5.894594
2008-09-05 06:40:32 51°16.551 2°52.972 17.3291 4.450058 34.220331 5.894594
2008-09-05 06:40:37 51°16.567 2°52.961 17.3216 4.449954 34.222147 5.929418
2008-09-05 06:40:42 51°16.582 2°52.95 17.3216 4.449228 34.216568 5.894594
2008-09-05 06:40:47 51°16.598 2°52.938 17.3192 4.452031 34.241378 5.964243
2008-09-05 06:40:52 51°16.613 2°52.928 17.3166 4.449539 34.22196 5.964243
2008-09-05 06:40:57 51°16.629 2°52.917 17.3144 4.45037 34.231821 5.929418
2008-09-05 06:41:02 51°16.645 2°52.907 17.3225 4.45037 34.231821 5.929418
2008-09-05 06:41:07 51°16.66 2°52.896 17.3146 4.451408 34.242117 5.964243
2008-09-05 06:41:12 51°16.676 2°52.884 17.3162 4.451304 34.243935 5.85977
2008-09-05 06:41:17 51°16.691 2°52.872 17.3122 4.438639 34.136243 5.824946
2008-09-05 06:41:22 51°16.706 2°52.86 17.3094 4.445491 34.196584 5.824946
2008-09-05 06:41:27 51°16.722 2°52.847 17.3044 4.44684 34.210238 5.720474
2008-09-05 06:41:32 51°16.737 2°52.835 17.3064 4.44684 34.210238 5.720474
2008-09-05 06:41:37 51°16.752 2°52.823 17.3055 4.44165 34.16622 5.720474
2008-09-05 06:41:42 51°16.767 2°52.811 17.3064 4.451408 34.251613 5.616002
2008-09-05 06:41:47 51°16.782 2°52.799 17.3085 4.448294 34.226144 5.616002
2008-09-05 06:41:52 51°16.798 2°52.787 17.3016 4.457741 34.310246 5.616002
2008-09-05 06:41:57 51°16.813 2°52.775 17.2982 4.452343 34.265771 5.476706
2008-09-05 06:42:02 51°16.828 2°52.763 17.2995 4.452343 34.265771 5.476706
2008-09-05 06:42:07 51°16.844 2°52.752 17.2969 4.447463 34.225094 5.441882
2008-09-05 06:42:12 51°16.859 2°52.74 17.2938 4.456703 34.304699 5.372234
2008-09-05 06:42:17 51°16.874 2°52.728 17.2912 4.454004 34.28212 5.372234
2008-09-05 06:42:22 51°16.89 2°52.716 17.2863 4.454523 34.287951 5.267761
2008-09-05 06:42:27 51°16.905 2°52.704 17.2864 4.454938 34.293569 5.128465
2008-09-05 06:42:32 51°16.92 2°52.692 17.2882 4.454938 34.293569 5.128465
2008-09-05 06:42:37 51°16.936 2°52.68 17.2863 4.451305 34.264295 5.128465
2008-09-05 06:42:42 51°16.952 2°52.668 17.2829 4.455146 34.298077 5.058817
2008-09-05 06:42:47 51°16.967 2°52.657 17.2757 4.454938 34.299687 5.058817
2008-09-05 06:42:52 51°16.983 2°52.644 17.2755 4.455976 34.311356 4.989169
2008-09-05 06:42:57 51°16.998 2°52.633 17.2731 4.450163 34.263283 4.849873
2008-09-05 06:43:02 51°17.013 2°52.62 17.2751 4.450163 34.263283 4.849873
2008-09-05 06:43:07 51°17.029 2°52.608 17.2738 4.450786 34.270011 4.884697
2008-09-05 06:43:12 51°17.044 2°52.596 17.2714 4.444557 34.217685 4.710577
2008-09-05 06:43:17 51°17.059 2°52.584 17.2702 4.455457 34.314364 4.640929
2008-09-05 06:43:22 51°17.075 2°52.572 17.2688 4.453485 34.300078 4.675753
2008-09-05 06:43:27 51°17.09 2°52.56 17.2663 4.450993 34.280636 4.57128
2008-09-05 06:43:32 51°17.106 2°52.548 17.2662 4.450993 34.280636 4.57128
2008-09-05 06:43:37 51°17.121 2°52.536 17.2632 4.452758 34.297894 4.466808
2008-09-05 06:43:42 51°17.136 2°52.524 17.2647 4.449436 34.26925 4.39716
2008-09-05 06:43:47 51°17.152 2°52.512 17.2687 4.451409 34.287617 4.39716
2008-09-05 06:43:52 51°17.167 2°52.499 17.2631 4.450267 34.27981 4.257864
2008-09-05 06:43:57 51°17.182 2°52.487 17.262 4.453589 34.3105 4.118568
2008-09-05 06:44:02 51°17.197 2°52.475 17.2605 4.453589 34.3105 4.118568
2008-09-05 06:44:07 51°17.213 2°52.463 17.2601 4.450475 34.285001 4.083744
2008-09-05 06:44:12 51°17.228 2°52.451 17.2607 4.453277 34.310536 3.944447
2008-09-05 06:44:17 51°17.243 2°52.438 17.2638 4.45089 34.290623 3.839975
2008-09-05 06:44:22 51°17.259 2°52.426 17.2627 4.450163 34.284355 3.805151
2008-09-05 06:44:27 51°17.273 2°52.411 17.2605 4.447256 34.260647 3.700679
2008-09-05 06:44:32 51°17.287 2°52.395 17.2643 4.447256 34.260647 3.700679
2008-09-05 06:44:37 51°17.3 2°52.379 17.2663 4.451201 34.29535 3.631031
2008-09-05 06:44:42 51°17.314 2°52.362 17.2725 4.447568 34.265372 3.596207
2008-09-05 06:44:47 51°17.327 2°52.344 17.2736 4.450267 34.288652 3.561383
2008-09-05 06:44:52 51°17.339 2°52.326 17.2767 4.452032 34.303875 3.561383
2008-09-05 06:44:57 51°17.352 2°52.308 17.2802 4.449229 34.281059 3.596207
2008-09-05 06:45:02 51°17.365 2°52.29 17.2855 4.449229 34.281059 3.596207
2008-09-05 06:45:07 51°17.377 2°52.271 17.2909 4.451098 34.296496 3.561383
2008-09-05 06:45:12 51°17.39 2°52.252 17.2931 4.450163 34.287077 3.526559
2008-09-05 06:45:17 51°17.402 2°52.233 17.2975 4.450994 34.291518 3.631031
2008-09-05 06:45:22 51°17.414 2°52.213 17.299 4.43781 34.175126 3.631031
2008-09-05 06:45:27 51°17.426 2°52.194 17.3045 4.447049 34.252061 3.631031
2008-09-05 06:45:32 51°17.439 2°52.175 17.3044 4.447049 34.252061 3.631031
2008-09-05 06:45:37 51°17.451 2°52.156 17.3052 4.455146 34.318484 3.631031
2008-09-05 06:45:42 51°17.464 2°52.137 17.3085 4.456392 34.324462 3.561383
2008-09-05 06:45:47 51°17.476 2°52.118 17.3078 4.45525 34.311213 3.665855
2008-09-05 06:45:52 51°17.488 2°52.098 17.3082 4.455457 34.309602 3.665855
2008-09-05 06:45:57 51°17.498 2°52.077 17.3075 4.457637 34.325675 3.631031
2008-09-05 06:46:02 51°17.509 2°52.056 17.308 4.457637 34.325675 3.631031
2008-09-05 06:46:07 51°17.519 2°52.034 17.3075 4.456184 34.309745 3.631031
2008-09-05 06:46:12 51°17.529 2°52.012 17.3084 4.458364 34.326496 3.596207
2008-09-05 06:46:17 51°17.538 2°51.989 17.3063 4.457637 34.318871 3.561383
2008-09-05 06:46:22 51°17.547 2°51.966 17.3057 4.457326 34.315507 3.561383
2008-09-05 06:46:27 51°17.556 2°51.944 17.3045 4.458468 34.323989 3.526559
2008-09-05 06:46:32 51°17.565 2°51.92 17.3022 4.458468 34.323989 3.526559
2008-09-05 06:46:37 51°17.574 2°51.897 17.3021 4.458468 34.324669 3.456911
2008-09-05 06:46:42 51°17.583 2°51.874 17.3004 4.459194 34.330253 3.456911
2008-09-05 06:46:47 51°17.592 2°51.851 17.2989 4.457845 34.31862 3.422087
2008-09-05 06:46:52 51°17.601 2°51.827 17.2991 4.45909 34.330038 3.422087
2008-09-05 06:46:57 51°17.61 2°51.804 17.2934 4.457741 34.319086 3.422087
2008-09-05 06:47:02 51°17.619 2°51.781 17.2922 4.457741 34.319086 3.422087
2008-09-05 06:47:07 51°17.628 2°51.758 17.2874 4.458883 34.329609 3.387263
2008-09-05 06:47:12 51°17.637 2°51.734 17.2869 4.459194 34.333655 3.387263
2008-09-05 06:47:17 51°17.646 2°51.711 17.2849 4.459298 34.335911 3.352439
2008-09-05 06:47:22 51°17.654 2°51.687 17.2816 4.457326 34.318908 3.387263
2008-09-05 06:47:27 51°17.663 2°51.664 17.2762 4.45961 34.342 3.456911
2008-09-05 06:47:32 51°17.673 2°51.641 17.275 4.45961 34.342 3.456911
2008-09-05 06:47:37 51°17.682 2°51.618 17.2679 4.457222 34.323456 3.422087
2008-09-05 06:47:42 51°17.691 2°51.595 17.2655 4.458779 34.338924 3.456911
2008-09-05 06:47:47 51°17.7 2°51.572 17.2634 4.457326 34.328435 3.422087
2008-09-05 06:47:52 51°17.709 2°51.549 17.2634 4.458156 34.338319 3.526559
2008-09-05 06:47:57 51°17.717 2°51.524 17.2607 4.458468 34.343729 3.631031
2008-09-05 06:48:02 51°17.725 2°51.501 17.2647 4.458468 34.343729 3.631031
2008-09-05 06:48:07 51°17.733 2°51.476 17.2647 4.458364 34.34624 3.631031
2008-09-05 06:48:12 51°17.741 2°51.452 17.266 4.457845 34.345169 3.665855
2008-09-05 06:48:17 51°17.748 2°51.428 17.2679 4.457741 34.34768 3.700679
2008-09-05 06:48:22 51°17.756 2°51.404 17.2697 4.457534 34.349297 3.700679
2008-09-05 06:48:27 51°17.764 2°51.379 17.2731 4.457326 34.34955 3.631031
2008-09-05 06:48:32 51°17.772 2°51.355 17.2746 4.457326 34.34955 3.631031
2008-09-05 06:48:37 51°17.779 2°51.33 17.2788 4.457326 34.348869 3.631031
2008-09-05 06:48:42 51°17.786 2°51.305 17.2809 4.457534 34.351342 3.631031
2008-09-05 06:48:47 51°17.793 2°51.281 17.2836 4.457638 34.350874 3.561383
2008-09-05 06:48:52 51°17.801 2°51.256 17.288 4.458053 34.353775 3.596207
2008-09-05 06:48:57 51°17.808 2°51.231 17.2918 4.458468 34.355313 3.491735
2008-09-05 06:49:02 51°17.815 2°51.207 17.2938 4.458468 34.355313 3.491735
2008-09-05 06:49:07 51°17.822 2°51.182 17.2974 4.457741 34.346999 3.456911
2008-09-05 06:49:12 51°17.83 2°51.158 17.3029 4.459299 34.358388 3.422087
2008-09-05 06:49:17 51°17.837 2°51.132 17.3028 4.459921 34.361034 3.352439
2008-09-05 06:49:22 51°17.845 2°51.108 17.3069 4.460544 34.363681 3.317614
2008-09-05 06:49:27 51°17.853 2°51.084 17.3119 4.461375 34.367436 3.317614
2008-09-05 06:49:32 51°17.861 2°51.06 17.3112 4.461375 34.367436 3.317614
2008-09-05 06:49:37 51°17.869 2°51.036 17.3132 4.46179 34.368291 3.28279
2008-09-05 06:49:42 51°17.877 2°51.012 17.3145 4.462413 34.370256 3.213142
2008-09-05 06:49:47 51°17.886 2°50.988 17.3149 4.463139 34.373115 3.178318
2008-09-05 06:49:52 51°17.894 2°50.964 17.3178 4.463555 34.37397 3.213142
2008-09-05 06:49:57 51°17.902 2°50.941 17.3188 4.46397 34.374143 3.178318
2008-09-05 06:50:02 51°17.91 2°50.917 17.3185 4.46397 34.374143 3.178318
2008-09-05 06:50:07 51°17.919 2°50.892 17.3204 4.464489 34.375893 3.178318
2008-09-05 06:50:12 51°17.927 2°50.869 17.3196 4.464904 34.37811 3.213142
2008-09-05 06:50:17 51°17.936 2°50.845 17.3204 4.465838 34.384121 3.178318
2008-09-05 06:50:22 51°17.945 2°50.821 17.3226 4.466046 34.384548 3.178318
2008-09-05 06:50:27 51°17.953 2°50.797 17.323 4.466461 34.386765 3.10867
2008-09-05 06:50:32 51°17.962 2°50.774 17.3235 4.466461 34.386765 3.10867
2008-09-05 06:50:37 51°17.971 2°50.751 17.3242 4.466669 34.387873 3.143494
2008-09-05 06:50:42 51°17.98 2°50.727 17.326 4.466876 34.3883 3.178318
2008-09-05 06:50:47 51°17.989 2°50.704 17.3221 4.467188 34.390303 3.213142
2008-09-05 06:50:52 51°17.999 2°50.681 17.3243 4.467395 34.39073 3.213142
2008-09-05 06:50:57 51°18.008 2°50.658 17.3208 4.467603 34.391157 3.247966
2008-09-05 06:51:02 51°18.017 2°50.635 17.3216 4.467603 34.391157 3.247966
2008-09-05 06:51:07 51°18.027 2°50.612 17.3215 4.467707 34.392052 3.28279
2008-09-05 06:51:12 51°18.036 2°50.589 17.3198 4.467603 34.390476 3.247966
2008-09-05 06:51:17 51°18.045 2°50.566 17.3185 4.467603 34.390476 3.28279
2008-09-05 06:51:22 51°18.054 2°50.543 17.3193 4.467811 34.392265 3.422087
2008-09-05 06:51:27 51°18.064 2°50.52 17.3188 4.467811 34.392265 3.422087
2008-09-05 06:51:32 51°18.073 2°50.496 17.3153 4.467811 34.392265 3.422087
2008-09-05 06:51:37 51°18.081 2°50.472 17.3187 4.467915 34.393842 3.456911
2008-09-05 06:51:42 51°18.09 2°50.448 17.3149 4.467915 34.394523 3.456911
2008-09-05 06:51:47 51°18.098 2°50.424 17.3155 4.467915 34.394523 3.561383
2008-09-05 06:51:52 51°18.106 2°50.4 17.3121 4.467707 34.394096 3.631031
2008-09-05 06:51:57 51°18.115 2°50.376 17.3109 4.467707 34.394778 3.596207
2008-09-05 06:52:02 51°18.123 2°50.352 17.3117 4.467707 34.394778 3.596207
2008-09-05 06:52:07 51°18.132 2°50.328 17.3105 4.467603 34.394564 3.631031
2008-09-05 06:52:12 51°18.14 2°50.304 17.309 4.467188 34.392348 3.665855
2008-09-05 06:52:17 51°18.148 2°50.28 17.3085 4.468018 34.399507 3.665855
2008-09-05 06:52:22 51°18.157 2°50.256 17.3098 4.467707 34.398186 3.805151
2008-09-05 06:52:27 51°18.165 2°50.232 17.3052 4.467707 34.398867 3.770327
2008-09-05 06:52:32 51°18.173 2°50.208 17.307 4.467707 34.398867 3.770327
2008-09-05 06:52:37 51°18.182 2°50.184 17.308 4.467396 34.398227 3.735503
2008-09-05 06:52:42 51°18.19 2°50.161 17.3054 4.467188 34.397119 3.770327
2008-09-05 06:52:47 51°18.198 2°50.137 17.3084 4.467084 34.397587 3.805151
2008-09-05 06:52:52 51°18.207 2°50.113 17.3082 4.46698 34.398056 3.805151
2008-09-05 06:52:57 51°18.216 2°50.089 17.3069 4.466877 34.397161 3.839975
2008-09-05 06:53:02 51°18.224 2°50.065 17.3076 4.466877 34.397161 3.839975
2008-09-05 06:53:07 51°18.233 2°50.041 17.307 4.466773 34.396947 3.805151
2008-09-05 06:53:12 51°18.242 2°50.018 17.3109 4.466773 34.397629 3.805151
2008-09-05 06:53:17 51°18.25 2°49.994 17.3081 4.466773 34.397629 3.839975
2008-09-05 06:53:22 51°18.259 2°49.97 17.3102 4.466773 34.396947 3.909623
2008-09-05 06:53:27 51°18.268 2°49.947 17.3083 4.466877 34.397842 3.770327
2008-09-05 06:53:32 51°18.276 2°49.923 17.3098 4.466877 34.397842 3.770327
2008-09-05 06:53:37 51°18.284 2°49.899 17.3092 4.46698 34.399419 3.839975
2008-09-05 06:53:42 51°18.29 2°49.873 17.3093 4.467084 34.399633 3.805151
2008-09-05 06:53:47 51°18.297 2°49.848 17.3119 4.467188 34.399846 3.770327
2008-09-05 06:53:52 51°18.304 2°49.823 17.3114 4.467188 34.399846 3.805151
2008-09-05 06:53:57 51°18.311 2°49.798 17.3097 4.467292 34.400741 3.735503
2008-09-05 06:54:02 51°18.317 2°49.773 17.3076 4.467292 34.400741 3.735503
2008-09-05 06:54:07 51°18.324 2°49.748 17.3077 4.467396 34.402318 3.805151
2008-09-05 06:54:12 51°18.33 2°49.722 17.3088 4.467396 34.401636 3.805151
2008-09-05 06:54:17 51°18.337 2°49.697 17.3102 4.467499 34.402531 3.665855
2008-09-05 06:54:22 51°18.343 2°49.671 17.312 4.467499 34.401849 3.700679
2008-09-05 06:54:27 51°18.349 2°49.645 17.3129 4.467603 34.402745 3.700679
2008-09-05 06:54:32 51°18.356 2°49.62 17.3087 4.467603 34.402745 3.700679
2008-09-05 06:54:37 51°18.362 2°49.594 17.3075 4.467707 34.404322 3.700679
2008-09-05 06:54:42 51°18.369 2°49.569 17.307 4.467603 34.403426 3.631031
2008-09-05 06:54:47 51°18.375 2°49.544 17.3065 4.467603 34.403426 3.735503
2008-09-05 06:54:52 51°18.382 2°49.518 17.3043 4.467603 34.402745 3.735503
2008-09-05 06:54:57 51°18.388 2°49.493 17.3058 4.467603 34.402745 3.700679
2008-09-05 06:55:02 51°18.394 2°49.467 17.3031 4.467603 34.402745 3.700679
2008-09-05 06:55:07 51°18.4 2°49.442 17.302 4.467603 34.402745 3.700679
2008-09-05 06:55:12 51°18.406 2°49.416 17.3041 4.467603 34.404108 3.700679
2008-09-05 06:55:17 51°18.413 2°49.391 17.3021 4.467396 34.403 3.665855
2008-09-05 06:55:22 51°18.419 2°49.365 17.3 4.467396 34.403682 3.735503
2008-09-05 06:55:27 51°18.425 2°49.34 17.2979 4.467292 34.403469 3.700679
2008-09-05 06:55:32 51°18.432 2°49.314 17.2982 4.467292 34.403469 3.700679
2008-09-05 06:55:37 51°18.438 2°49.289 17.2988 4.467084 34.40236 3.735503
2008-09-05 06:55:42 51°18.444 2°49.263 17.3005 4.46698 34.402829 3.700679
2008-09-05 06:55:47 51°18.451 2°49.238 17.2988 4.466877 34.402616 3.770327
2008-09-05 06:55:52 51°18.457 2°49.212 17.3005 4.466773 34.403084 3.735503
2008-09-05 06:55:57 51°18.463 2°49.187 17.2988 4.466669 34.402871 3.735503
2008-09-05 06:56:02 51°18.469 2°49.161 17.3011 4.466669 34.402871 3.735503
2008-09-05 06:56:07 51°18.476 2°49.136 17.2999 4.466565 34.40334 3.805151
2008-09-05 06:56:12 51°18.482 2°49.11 17.3004 4.466461 34.403127 3.839975
2008-09-05 06:56:17 51°18.488 2°49.085 17.3027 4.466461 34.403127 3.770327
2008-09-05 06:56:22 51°18.495 2°49.059 17.3024 4.466461 34.401763 3.839975
2008-09-05 06:56:27 51°18.501 2°49.033 17.3033 4.466565 34.40334 3.839975
2008-09-05 06:56:32 51°18.507 2°49.008 17.3037 4.466565 34.40334 3.839975
2008-09-05 06:56:37 51°18.512 2°48.982 17.3024 4.466669 34.403553 3.874799
2008-09-05 06:56:42 51°18.518 2°48.956 17.3051 4.466773 34.404449 3.805151
2008-09-05 06:56:47 51°18.524 2°48.93 17.3049 4.466877 34.405344 3.839975
2008-09-05 06:56:52 51°18.529 2°48.904 17.3067 4.466981 34.405557 3.805151
2008-09-05 06:56:57 51°18.535 2°48.878 17.308 4.467188 34.406666 3.839975
2008-09-05 06:57:02 51°18.54 2°48.852 17.3047 4.467188 34.406666 3.839975
2008-09-05 06:57:07 51°18.545 2°48.825 17.3056 4.467292 34.406879 3.770327
2008-09-05 06:57:12 51°18.549 2°48.799 17.3061 4.4675 34.407987 3.770327
2008-09-05 06:57:17 51°18.554 2°48.773 17.3086 4.467603 34.408883 3.805151
2008-09-05 06:57:22 51°18.559 2°48.746 17.3086 4.467707 34.409096 3.839975
2008-09-05 06:57:27 51°18.564 2°48.72 17.3113 4.467915 34.410886 3.805151
2008-09-05 06:57:32 51°18.57 2°48.694 17.3113 4.467915 34.410886 3.805151
2008-09-05 06:57:37 51°18.575 2°48.668 17.3111 4.468122 34.411995 3.909623
2008-09-05 06:57:42 51°18.58 2°48.641 17.3114 4.468226 34.41289 3.839975
2008-09-05 06:57:47 51°18.585 2°48.615 17.3126 4.468434 34.413998 3.839975
2008-09-05 06:57:52 51°18.589 2°48.588 17.3135 4.468641 34.414424 3.805151
2008-09-05 06:57:57 51°18.595 2°48.562 17.3139 4.468849 34.415533 3.839975
2008-09-05 06:58:02 51°18.6 2°48.536 17.3122 4.468849 34.415533 3.839975
2008-09-05 06:58:07 51°18.604 2°48.509 17.3128 4.469161 34.417536 3.839975
2008-09-05 06:58:12 51°18.609 2°48.483 17.3148 4.469368 34.418644 3.770327
2008-09-05 06:58:17 51°18.614 2°48.456 17.3167 4.46968 34.420648 3.805151
2008-09-05 06:58:22 51°18.618 2°48.429 17.3162 4.469783 34.420861 3.805151
2008-09-05 06:58:27 51°18.622 2°48.403 17.3158 4.470095 34.422864 3.839975
2008-09-05 06:58:32 51°18.627 2°48.376 17.3159 4.470095 34.422864 3.839975
2008-09-05 06:58:37 51°18.631 2°48.35 17.3159 4.470302 34.424654 3.839975
2008-09-05 06:58:42 51°18.635 2°48.323 17.3147 4.470406 34.425549 3.805151
2008-09-05 06:58:47 51°18.64 2°48.296 17.3161 4.47051 34.425762 3.770327
2008-09-05 06:58:52 51°18.644 2°48.27 17.3129 4.470614 34.425975 3.770327
2008-09-05 06:58:57 51°18.649 2°48.243 17.3154 4.470614 34.425293 3.805151
2008-09-05 06:59:02 51°18.653 2°48.216 17.3122 4.470614 34.425293 3.805151
2008-09-05 06:59:07 51°18.658 2°48.19 17.3106 4.470718 34.426188 3.770327
2008-09-05 06:59:12 51°18.662 2°48.163 17.3117 4.470614 34.425975 3.770327
2008-09-05 06:59:17 51°18.667 2°48.137 17.3076 4.470614 34.425975 3.805151
2008-09-05 06:59:22 51°18.671 2°48.11 17.3075 4.47051 34.42508 3.770327
2008-09-05 06:59:27 51°18.676 2°48.084 17.3083 4.47051 34.425762 3.735503
2008-09-05 06:59:32 51°18.68 2°48.057 17.3079 4.47051 34.425762 3.735503
2008-09-05 06:59:37 51°18.685 2°48.031 17.3076 4.470406 34.425549 3.735503
2008-09-05 06:59:42 51°18.689 2°48.005 17.3052 4.470302 34.426019 3.700679
2008-09-05 06:59:47 51°18.694 2°47.979 17.3047 4.470095 34.424911 3.770327
2008-09-05 06:59:52 51°18.699 2°47.952 17.3044 4.469991 34.42538 3.700679
2008-09-05 06:59:57 51°18.704 2°47.926 17.307 4.469783 34.424272 3.665855
2008-09-05 07:00:02 51°18.708 2°47.9 17.3053 4.469783 34.424272 3.665855
2008-09-05 07:00:07 51°18.713 2°47.873 17.3038 4.46968 34.424059 3.700679
2008-09-05 07:00:12 51°18.718 2°47.847 17.3037 4.469576 34.423164 3.665855
2008-09-05 07:00:17 51°18.723 2°47.821 17.302 4.469472 34.422951 3.735503
2008-09-05 07:00:22 51°18.729 2°47.795 17.3039 4.469264 34.421843 3.770327
2008-09-05 07:00:27 51°18.734 2°47.769 17.3019 4.469161 34.420947 3.735503
2008-09-05 07:00:32 51°18.74 2°47.743 17.3038 4.469161 34.420947 3.735503
2008-09-05 07:00:37 51°18.745 2°47.716 17.3044 4.469057 34.420052 3.700679
2008-09-05 07:00:42 51°18.751 2°47.69 17.3045 4.469057 34.420734 3.700679
2008-09-05 07:00:47 51°18.757 2°47.664 17.3052 4.469057 34.421417 3.700679
2008-09-05 07:00:52 51°18.762 2°47.638 17.3076 4.469057 34.421417 3.631031
2008-09-05 07:00:57 51°18.767 2°47.612 17.3078 4.469057 34.421417 3.561383
2008-09-05 07:01:02 51°18.773 2°47.586 17.3088 4.469057 34.421417 3.561383
2008-09-05 07:01:07 51°18.778 2°47.559 17.3104 4.469161 34.422995 3.631031
2008-09-05 07:01:12 51°18.783 2°47.533 17.3109 4.469264 34.42389 3.561383
2008-09-05 07:01:17 51°18.788 2°47.506 17.3135 4.469368 34.424103 3.561383
2008-09-05 07:01:22 51°18.793 2°47.48 17.317 4.469576 34.425211 3.491735
2008-09-05 07:01:27 51°18.798 2°47.454 17.3192 4.469783 34.426319 3.526559
2008-09-05 07:01:32 51°18.803 2°47.427 17.3176 4.469783 34.426319 3.526559
2008-09-05 07:01:37 51°18.808 2°47.401 17.3179 4.469991 34.427427 3.422087
2008-09-05 07:01:42 51°18.814 2°47.375 17.3211 4.47051 34.431222 3.387263
2008-09-05 07:01:47 51°18.819 2°47.349 17.3223 4.470925 34.433438 3.387263
2008-09-05 07:01:52 51°18.825 2°47.323 17.3228 4.471237 34.434076 3.317614
2008-09-05 07:01:57 51°18.83 2°47.297 17.3244 4.471652 34.436292 3.352439
2008-09-05 07:02:02 51°18.836 2°47.271 17.3264 4.471652 34.436292 3.352439
2008-09-05 07:02:07 51°18.841 2°47.245 17.3296 4.471237 34.430664 3.317614
2008-09-05 07:02:12 51°18.847 2°47.219 17.3312 4.470925 34.427296 3.28279
2008-09-05 07:02:17 51°18.852 2°47.193 17.333 4.472794 34.442044 3.247966
2008-09-05 07:02:22 51°18.858 2°47.167 17.3364 4.470302 34.419197 3.317614
2008-09-05 07:02:27 51°18.862 2°47.141 17.3386 4.47269 34.438419 3.213142
2008-09-05 07:02:32 51°18.868 2°47.115 17.3415 4.47269 34.438419 3.213142
2008-09-05 07:02:37 51°18.873 2°47.089 17.3427 4.474455 34.451588 3.247966
2008-09-05 07:02:42 51°18.878 2°47.063 17.346 4.474351 34.449328 3.213142
2008-09-05 07:02:47 51°18.884 2°47.037 17.3482 4.475078 34.453545 3.213142
2008-09-05 07:02:52 51°18.889 2°47.01 17.3492 4.475805 34.457763 3.247966
2008-09-05 07:02:57 51°18.894 2°46.985 17.3507 4.475285 34.450558 3.247966
2008-09-05 07:03:02 51°18.899 2°46.958 17.353 4.475285 34.450558 3.247966
2008-09-05 07:03:07 51°18.904 2°46.932 17.3571 4.474662 34.443142 3.213142
2008-09-05 07:03:12 51°18.909 2°46.906 17.357 4.47487 34.442885 3.247966
2008-09-05 07:03:17 51°18.915 2°46.88 17.3603 4.474766 34.439262 3.247966
2008-09-05 07:03:22 51°18.92 2°46.854 17.3604 4.474351 34.433637 3.317614
2008-09-05 07:03:27 51°18.925 2°46.828 17.3627 4.475285 34.440325 3.28279
2008-09-05 07:03:32 51°18.93 2°46.802 17.3643 4.475285 34.440325 3.28279
2008-09-05 07:03:37 51°18.935 2°46.775 17.3663 4.475078 34.43649 3.28279
2008-09-05 07:03:42 51°18.94 2°46.749 17.3676 4.476012 34.442496 3.317614
2008-09-05 07:03:47 51°18.945 2°46.723 17.3685 4.475597 34.436872 3.317614
2008-09-05 07:03:52 51°18.95 2°46.697 17.3706 4.476739 34.444666 3.352439
2008-09-05 07:03:57 51°18.954 2°46.671 17.3735 4.476427 34.439937 3.28279
2008-09-05 07:04:02 51°18.959 2°46.644 17.3743 4.476427 34.439937 3.28279
2008-09-05 07:04:07 51°18.964 2°46.618 17.3718 4.477465 34.447518 3.387263
2008-09-05 07:04:12 51°18.968 2°46.591 17.3735 4.477569 34.446367 3.456911
2008-09-05 07:04:17 51°18.973 2°46.565 17.3743 4.47705 34.440532 3.387263
2008-09-05 07:04:22 51°18.977 2°46.539 17.3735 4.477984 34.447217 3.422087
2008-09-05 07:04:27 51°18.982 2°46.512 17.3739 4.476738 34.434442 3.456911
2008-09-05 07:04:32 51°18.986 2°46.486 17.3724 4.476738 34.434442 3.456911
2008-09-05 07:04:37 51°18.991 2°46.459 17.3748 4.47788 34.442915 3.422087
2008-09-05 07:04:42 51°18.995 2°46.433 17.3726 4.478192 34.444916 3.422087
2008-09-05 07:04:47 51°19 2°46.406 17.3729 4.478399 34.446704 3.456911
2008-09-05 07:04:52 51°19.005 2°46.38 17.3711 4.478607 34.447811 3.561383
2008-09-05 07:04:57 51°19.009 2°46.353 17.3709 4.479957 34.458754 3.526559
2008-09-05 07:05:02 51°19.013 2°46.327 17.3719 4.479957 34.458754 3.526559
2008-09-05 07:05:07 51°19.018 2°46.3 17.3706 4.478711 34.448024 3.526559
2008-09-05 07:05:12 51°19.023 2°46.273 17.3679 4.479022 34.450706 3.561383
2008-09-05 07:05:17 51°19.027 2°46.247 17.3694 4.479645 34.456753 3.596207
2008-09-05 07:05:22 51°19.031 2°46.22 17.3706 4.479126 34.451601 3.631031
2008-09-05 07:05:27 51°19.036 2°46.194 17.3687 4.47923 34.453176 3.700679
2008-09-05 07:05:32 51°19.041 2°46.168 17.3673 4.47923 34.453176 3.700679
2008-09-05 07:05:37 51°19.045 2°46.142 17.3668 4.478088 34.444022 3.665855
2008-09-05 07:05:42 51°19.049 2°46.115 17.3677 4.479126 34.452964 3.665855
2008-09-05 07:05:47 51°19.054 2°46.089 17.364 4.479334 34.456116 3.700679
2008-09-05 07:05:52 51°19.058 2°46.062 17.3679 4.479645 34.458117 3.805151
2008-09-05 07:05:57 51°19.062 2°46.036 17.366 4.479645 34.458799 3.770327
2008-09-05 07:06:02 51°19.065 2°46.009 17.3656 4.479645 34.458799 3.770327
2008-09-05 07:06:07 51°19.07 2°45.983 17.3669 4.479438 34.457692 3.805151
2008-09-05 07:06:12 51°19.074 2°45.957 17.3657 4.479334 34.45748 3.874799
2008-09-05 07:06:17 51°19.079 2°45.93 17.3625 4.479334 34.458162 3.805151
2008-09-05 07:06:22 51°19.083 2°45.904 17.3646 4.47923 34.457949 3.874799
2008-09-05 07:06:27 51°19.088 2°45.878 17.3641 4.478815 34.454372 3.874799
2008-09-05 07:06:32 51°19.092 2°45.851 17.3621 4.478815 34.454372 3.874799
2008-09-05 07:06:37 51°19.097 2°45.825 17.3614 4.477984 34.447217 3.909623
2008-09-05 07:06:42 51°19.101 2°45.799 17.3637 4.478503 34.451689 3.909623
2008-09-05 07:06:47 51°19.106 2°45.773 17.3583 4.478088 34.448793 3.874799
2008-09-05 07:06:52 51°19.111 2°45.746 17.3568 4.478296 34.451264 3.874799
2008-09-05 07:06:57 51°19.115 2°45.72 17.3581 4.478296 34.450582 3.909623
2008-09-05 07:07:02 51°19.12 2°45.693 17.3577 4.478296 34.450582 3.909623
2008-09-05 07:07:07 51°19.124 2°45.668 17.358 4.478399 34.45284 3.944447
2008-09-05 07:07:12 51°19.129 2°45.641 17.3561 4.477984 34.449263 3.944447
2008-09-05 07:07:17 51°19.134 2°45.615 17.3562 4.478503 34.454416 4.014096
2008-09-05 07:07:22 51°19.138 2°45.588 17.356 4.478919 34.46004 4.04892
2008-09-05 07:07:27 51°19.143 2°45.562 17.3546 4.477361 34.447305 4.04892
2008-09-05 07:07:32 51°19.147 2°45.536 17.3542 4.477361 34.447305 4.04892
2008-09-05 07:07:37 51°19.152 2°45.509 17.356 4.477569 34.449776 4.04892
2008-09-05 07:07:42 51°19.156 2°45.483 17.3546 4.481514 34.48445 4.118568
2008-09-05 07:07:47 51°19.16 2°45.456 17.3546 4.481306 34.483344 4.083744
2008-09-05 07:07:52 51°19.164 2°45.429 17.3548 4.481203 34.482449 4.118568
2008-09-05 07:07:57 51°19.169 2°45.403 17.3524 4.481099 34.482237 4.153392
2008-09-05 07:08:02 51°19.173 2°45.376 17.3501 4.481099 34.482237 4.153392
2008-09-05 07:08:07 51°19.178 2°45.35 17.3519 4.480891 34.481131 4.153392
2008-09-05 07:08:12 51°19.182 2°45.323 17.3508 4.480787 34.480236 4.22304
2008-09-05 07:08:17 51°19.187 2°45.296 17.3516 4.480684 34.480024 4.292688
2008-09-05 07:08:22 51°19.191 2°45.27 17.3514 4.48058 34.479129 4.327512
2008-09-05 07:08:27 51°19.196 2°45.243 17.351 4.480476 34.478917 4.292688
2008-09-05 07:08:32 51°19.201 2°45.217 17.3521 4.480476 34.478917 4.292688
2008-09-05 07:08:37 51°19.206 2°45.19 17.3517 4.480372 34.478705 4.327512
2008-09-05 07:08:42 51°19.21 2°45.164 17.3517 4.480268 34.478493 4.327512
2008-09-05 07:08:47 51°19.215 2°45.137 17.3505 4.480165 34.477598 4.327512
2008-09-05 07:08:52 51°19.22 2°45.11 17.3524 4.480061 34.476704 4.362336
2008-09-05 07:08:57 51°19.225 2°45.084 17.3541 4.479957 34.476492 4.327512
2008-09-05 07:09:02 51°19.229 2°45.057 17.3534 4.479957 34.476492 4.327512
2008-09-05 07:09:07 51°19.234 2°45.031 17.3531 4.479957 34.475809 4.39716
2008-09-05 07:09:12 51°19.239 2°45.004 17.3534 4.479853 34.475597 4.39716
2008-09-05 07:09:17 51°19.243 2°44.977 17.3535 4.479853 34.475597 4.39716
2008-09-05 07:09:22 51°19.248 2°44.95 17.3559 4.479749 34.474702 4.466808
2008-09-05 07:09:27 51°19.252 2°44.923 17.3554 4.479749 34.47402 4.466808
2008-09-05 07:09:32 51°19.256 2°44.896 17.3543 4.479749 34.47402 4.466808
2008-09-05 07:09:37 51°19.26 2°44.869 17.355 4.479749 34.473337 4.57128
2008-09-05 07:09:42 51°19.263 2°44.842 17.3543 4.479645 34.472442 4.466808
2008-09-05 07:09:47 51°19.267 2°44.814 17.3524 4.479645 34.472442 4.466808
2008-09-05 07:09:52 51°19.27 2°44.787 17.3549 4.479645 34.47176 4.501632
2008-09-05 07:09:57 51°19.274 2°44.76 17.3557 4.479749 34.472655 4.466808
2008-09-05 07:10:02 51°19.277 2°44.733 17.3549 4.479749 34.472655 4.466808
2008-09-05 07:10:07 51°19.28 2°44.705 17.3557 4.479645 34.471078 4.501632
2008-09-05 07:10:12 51°19.283 2°44.678 17.3572 4.479645 34.47176 4.57128
2008-09-05 07:10:17 51°19.285 2°44.651 17.3567 4.479749 34.472655 4.57128
2008-09-05 07:10:22 51°19.288 2°44.623 17.3584 4.479645 34.47176 4.536456
2008-09-05 07:10:27 51°19.29 2°44.596 17.3549 4.479645 34.47176 4.501632
2008-09-05 07:10:32 51°19.293 2°44.569 17.3557 4.479645 34.47176 4.501632
2008-09-05 07:10:37 51°19.296 2°44.542 17.358 4.479645 34.471078 4.536456
2008-09-05 07:10:42 51°19.299 2°44.514 17.3567 4.479645 34.470395 4.536456
2008-09-05 07:10:47 51°19.303 2°44.487 17.3569 4.479645 34.469713 4.501632
2008-09-05 07:10:52 51°19.307 2°44.461 17.3572 4.479749 34.469925 4.466808
2008-09-05 07:10:57 51°19.31 2°44.434 17.3605 4.479749 34.469925 4.57128
2008-09-05 07:11:02 51°19.314 2°44.407 17.3584 4.479749 34.469925 4.57128
2008-09-05 07:11:07 51°19.318 2°44.38 17.3596 4.479645 34.469713 4.501632
2008-09-05 07:11:12 51°19.321 2°44.353 17.3606 4.479645 34.469713 4.431984
2008-09-05 07:11:17 51°19.325 2°44.326 17.3645 4.479645 34.46903 4.431984
2008-09-05 07:11:22 51°19.329 2°44.3 17.3637 4.479645 34.46903 4.57128
2008-09-05 07:11:27 51°19.332 2°44.273 17.3647 4.479749 34.469243 4.466808
2008-09-05 07:11:32 51°19.335 2°44.246 17.3659 4.479749 34.469243 4.466808
2008-09-05 07:11:37 51°19.339 2°44.22 17.366 4.479749 34.46856 4.536456
2008-09-05 07:11:42 51°19.343 2°44.193 17.3689 4.479853 34.468773 4.501632
2008-09-05 07:11:47 51°19.347 2°44.166 17.3693 4.479957 34.468985 4.501632
2008-09-05 07:11:52 51°19.351 2°44.14 17.3687 4.480061 34.468515 4.466808
2008-09-05 07:11:57 51°19.355 2°44.113 17.3698 4.480164 34.468045 4.536456
2008-09-05 07:12:02 51°19.359 2°44.087 17.3706 4.480164 34.468045 4.536456
2008-09-05 07:12:07 51°19.362 2°44.06 17.3716 4.480268 34.468257 4.39716
2008-09-05 07:12:12 51°19.366 2°44.034 17.3745 4.480372 34.467787 4.466808
2008-09-05 07:12:17 51°19.37 2°44.007 17.3752 4.480476 34.467999 4.466808
2008-09-05 07:12:22 51°19.374 2°43.981 17.3789 4.48058 34.468212 4.466808
2008-09-05 07:12:27 51°19.377 2°43.954 17.381 4.480683 34.468424 4.536456
2008-09-05 07:12:32 51°19.38 2°43.928 17.3809 4.480683 34.468424 4.536456
2008-09-05 07:12:37 51°19.384 2°43.901 17.384 4.480683 34.467742 4.466808
2008-09-05 07:12:42 51°19.387 2°43.874 17.3859 4.480787 34.467954 4.466808
2008-09-05 07:12:47 51°19.391 2°43.848 17.3903 4.480891 34.467484 4.362336
2008-09-05 07:12:52 51°19.395 2°43.821 17.391 4.481099 34.467227 4.39716
2008-09-05 07:12:57 51°19.398 2°43.794 17.393 4.481306 34.46697 4.39716
2008-09-05 07:13:02 51°19.401 2°43.767 17.3955 4.481306 34.46697 4.39716
2008-09-05 07:13:07 51°19.405 2°43.741 17.3973 4.481514 34.467394 4.466808
2008-09-05 07:13:12 51°19.409 2°43.714 17.3989 4.481825 34.467349 4.292688
2008-09-05 07:13:17 51°19.412 2°43.688 17.4025 4.482033 34.467092 4.327512
2008-09-05 07:13:22 51°19.415 2°43.661 17.4038 4.482344 34.467729 4.257864
2008-09-05 07:13:27 51°19.419 2°43.634 17.4049 4.482552 34.468153 4.292688
2008-09-05 07:13:32 51°19.423 2°43.608 17.4082 4.482552 34.468153 4.292688
2008-09-05 07:13:37 51°19.427 2°43.581 17.4089 4.482863 34.468108 4.22304
2008-09-05 07:13:42 51°19.431 2°43.554 17.4111 4.483175 34.468745 4.257864
2008-09-05 07:13:47 51°19.435 2°43.528 17.414 4.483486 34.4687 4.257864
2008-09-05 07:13:52 51°19.44 2°43.502 17.4139 4.483798 34.469337 4.22304
2008-09-05 07:13:57 51°19.444 2°43.475 17.4158 4.484213 34.470868 4.118568
2008-09-05 07:14:02 51°19.448 2°43.448 17.4167 4.484213 34.470868 4.118568
2008-09-05 07:14:07 51°19.452 2°43.422 17.4188 4.484524 34.471504 4.188216
2008-09-05 07:14:12 51°19.456 2°43.396 17.42 4.484939 34.473035 4.118568
2008-09-05 07:14:17 51°19.459 2°43.369 17.4206 4.485147 34.472778 4.04892
2008-09-05 07:14:22 51°19.463 2°43.343 17.4215 4.485562 34.474989 4.04892
2008-09-05 07:14:27 51°19.466 2°43.316 17.4222 4.48577 34.475414 3.944447
2008-09-05 07:14:32 51°19.47 2°43.289 17.4227 4.48577 34.475414 3.944447
2008-09-05 07:14:37 51°19.474 2°43.263 17.4229 4.485978 34.475838 4.014096
2008-09-05 07:14:42 51°19.478 2°43.236 17.4239 4.486289 34.477156 3.979271
2008-09-05 07:14:47 51°19.482 2°43.21 17.4235 4.486497 34.47758 3.944447
2008-09-05 07:14:52 51°19.486 2°43.183 17.4198 4.486704 34.478004 3.944447
2008-09-05 07:14:57 51°19.491 2°43.157 17.4176 4.486808 34.477535 3.874799
2008-09-05 07:15:02 51°19.495 2°43.13 17.4162 4.486808 34.477535 3.874799
2008-09-05 07:15:07 51°19.499 2°43.104 17.4147 4.486912 34.478429 3.909623
2008-09-05 07:15:12 51°19.504 2°43.077 17.4155 4.486185 34.471494 3.805151
2008-09-05 07:15:17 51°19.508 2°43.051 17.4122 4.487119 34.478853 3.874799
2008-09-05 07:15:22 51°19.512 2°43.025 17.4114 4.487119 34.478853 3.839975
2008-09-05 07:15:27 51°19.516 2°42.998 17.4085 4.486912 34.477747 3.839975
2008-09-05 07:15:32 51°19.521 2°42.972 17.4082 4.486912 34.477747 3.839975
2008-09-05 07:15:37 51°19.524 2°42.945 17.4096 4.486808 34.478898 3.770327
2008-09-05 07:15:42 51°19.529 2°42.919 17.4083 4.486497 34.47758 3.805151
2008-09-05 07:15:47 51°19.533 2°42.892 17.4102 4.486081 34.475369 3.770327
2008-09-05 07:15:52 51°19.537 2°42.866 17.4103 4.485874 34.474944 3.735503
2008-09-05 07:15:57 51°19.541 2°42.839 17.4107 4.485562 34.473627 3.700679
2008-09-05 07:16:02 51°19.545 2°42.812 17.4141 4.485562 34.473627 3.700679
2008-09-05 07:16:07 51°19.549 2°42.786 17.4156 4.485251 34.472309 3.700679
2008-09-05 07:16:12 51°19.553 2°42.759 17.4192 4.484939 34.470309 3.700679
2008-09-05 07:16:17 51°19.556 2°42.732 17.4207 4.484732 34.468522 3.700679
2008-09-05 07:16:22 51°19.561 2°42.706 17.4207 4.484628 34.467628 3.700679
2008-09-05 07:16:27 51°19.564 2°42.679 17.4222 4.484524 34.466054 3.735503
2008-09-05 07:16:32 51°19.568 2°42.653 17.424 4.484524 34.466054 3.735503
2008-09-05 07:16:37 51°19.572 2°42.626 17.4259 4.48442 34.463798 3.735503
2008-09-05 07:16:42 51°19.576 2°42.6 17.4282 4.484316 34.461542 3.700679
2008-09-05 07:16:47 51°19.579 2°42.573 17.4301 4.484316 34.459499 3.735503
2008-09-05 07:16:52 51°19.583 2°42.546 17.4306 4.48442 34.459031 3.735503
2008-09-05 07:16:57 51°19.587 2°42.52 17.4327 4.48442 34.457669 3.735503
2008-09-05 07:17:02 51°19.59 2°42.493 17.4332 4.48442 34.457669 3.735503
2008-09-05 07:17:07 51°19.594 2°42.467 17.4349 4.484524 34.4572 3.770327
2008-09-05 07:17:12 51°19.599 2°42.44 17.4366 4.484524 34.455158 3.839975
2008-09-05 07:17:17 51°19.602 2°42.413 17.4357 4.484628 34.45469 3.909623
2008-09-05 07:17:22 51°19.607 2°42.387 17.4375 4.484732 34.454222 3.839975
2008-09-05 07:17:27 51°19.611 2°42.36 17.6368 4.484835 34.453073 3.839975
2008-09-05 07:17:32 51°19.615 2°42.334 17.4368 4.484835 34.453073 3.839975
2008-09-05 07:17:37 51°19.619 2°42.307 17.4368 4.484939 34.452605 3.839975
2008-09-05 07:17:42 51°19.623 2°42.281 17.4375 4.485043 34.451456 3.839975
2008-09-05 07:17:47 51°19.627 2°42.254 17.4363 4.485043 34.450776 3.874799
2008-09-05 07:17:52 51°19.631 2°42.228 17.438 4.485147 34.450989 3.839975
2008-09-05 07:17:57 51°19.635 2°42.201 17.4368 4.485147 34.450308 3.944447
2008-09-05 07:18:02 51°19.639 2°42.175 17.4347 4.485147 34.450308 3.944447
2008-09-05 07:18:07 51°19.642 2°42.148 17.4351 4.485147 34.449628 3.909623
2008-09-05 07:18:12 51°19.647 2°42.122 17.4344 4.48525 34.450521 4.014096
2008-09-05 07:18:17 51°19.65 2°42.095 17.4341 4.484835 34.446949 3.944447
2008-09-05 07:18:22 51°19.655 2°42.068 17.4321 4.48525 34.450521 3.909623
2008-09-05 07:18:27 51°19.658 2°42.042 17.4313 4.485147 34.449628 3.944447
2008-09-05 07:18:32 51°19.662 2°42.015 17.4269 4.485147 34.449628 3.944447
2008-09-05 07:18:37 51°19.666 2°41.988 17.4268 4.485043 34.448735 3.979271
2008-09-05 07:18:42 51°19.67 2°41.961 17.4226 4.485147 34.450308 3.909623
2008-09-05 07:18:47 51°19.673 2°41.935 17.4206 4.485147 34.450989 3.944447
2008-09-05 07:18:52 51°19.677 2°41.908 17.418 4.485147 34.451669 4.04892
2008-09-05 07:18:57 51°19.681 2°41.882 17.4187 4.485043 34.452137 4.04892
2008-09-05 07:19:02 51°19.686 2°41.855 17.4146 4.485043 34.452137 4.04892
2008-09-05 07:19:07 51°19.69 2°41.829 17.4129 4.484524 34.449032 3.944447
2008-09-05 07:19:12 51°19.694 2°41.802 17.4117 4.484316 34.449288 3.909623
2008-09-05 07:19:17 51°19.697 2°41.775 17.4066 4.484005 34.447969 3.874799
2008-09-05 07:19:22 51°19.701 2°41.749 17.4055 4.48442 34.453584 3.874799
2008-09-05 07:19:27 51°19.704 2°41.722 17.4015 4.484005 34.452053 3.909623
2008-09-05 07:19:32 51°19.708 2°41.695 17.3981 4.484005 34.452053 3.909623
2008-09-05 07:19:37 51°19.711 2°41.668 17.3972 4.48359 34.450522 3.770327
2008-09-05 07:19:42 51°19.714 2°41.641 17.3968 4.483486 34.451671 3.700679
2008-09-05 07:19:47 51°19.718 2°41.615 17.3974 4.483071 34.449459 3.735503
2008-09-05 07:19:52 51°19.72 2°41.588 17.397 4.479126 34.418234 3.665855
2008-09-05 07:19:57 51°19.724 2°41.561 17.3953 4.482967 34.454013 3.631031
2008-09-05 07:20:02 51°19.727 2°41.534 17.3969 4.482967 34.454013 3.631031
2008-09-05 07:20:07 51°19.731 2°41.508 17.3963 4.482863 34.456525 3.596207
2008-09-05 07:20:12 51°19.734 2°41.481 17.3952 4.482552 34.456569 3.526559
2008-09-05 07:20:17 51°19.739 2°41.454 17.3966 4.482344 34.456144 3.596207
2008-09-05 07:20:22 51°19.743 2°41.427 17.3962 4.482136 34.455037 3.561383
2008-09-05 07:20:27 51°19.747 2°41.401 17.3971 4.482033 34.454825 3.596207
2008-09-05 07:20:32 51°19.751 2°41.374 17.3957 4.482033 34.454825 3.596207
2008-09-05 07:20:37 51°19.755 2°41.348 17.3938 4.481929 34.454612 3.631031
2008-09-05 07:20:42 51°19.759 2°41.321 17.3936 4.481929 34.454612 3.631031
2008-09-05 07:20:47 51°19.763 2°41.295 17.391 4.481929 34.454612 3.665855
2008-09-05 07:20:52 51°19.767 2°41.268 17.3917 4.481825 34.453719 3.596207
2008-09-05 07:20:57 51°19.771 2°41.241 17.3939 4.481929 34.453931 3.665855
2008-09-05 07:21:02 51°19.775 2°41.215 17.3909 4.481929 34.453931 3.665855
2008-09-05 07:21:07 51°19.779 2°41.188 17.3915 4.481825 34.453719 3.631031
2008-09-05 07:21:12 51°19.783 2°41.161 17.3909 4.481825 34.4544 3.665855
2008-09-05 07:21:17 51°19.787 2°41.134 17.3899 4.481721 34.454869 3.561383
2008-09-05 07:21:22 51°19.791 2°41.108 17.3892 4.481617 34.454656 3.596207
2008-09-05 07:21:27 51°19.796 2°41.081 17.3884 4.481617 34.455338 3.561383
2008-09-05 07:21:32 51°19.8 2°41.054 17.3905 4.481617 34.455338 3.561383
2008-09-05 07:21:37 51°19.804 2°41.027 17.3927 4.481514 34.454444 3.561383
2008-09-05 07:21:42 51°19.808 2°41.001 17.3889 4.481514 34.455125 3.526559
2008-09-05 07:21:47 51°19.813 2°40.974 17.3888 4.48141 34.454231 3.526559
2008-09-05 07:21:52 51°19.817 2°40.947 17.3867 4.48141 34.454913 3.491735
2008-09-05 07:21:57 51°19.821 2°40.92 17.3867 4.48141 34.455594 3.491735
2008-09-05 07:22:02 51°19.824 2°40.893 17.3859 4.48141 34.455594 3.491735
2008-09-05 07:22:07 51°19.828 2°40.867 17.3864 4.48141 34.455594 3.526559
2008-09-05 07:22:12 51°19.832 2°40.84 17.3878 4.481306 34.454019 3.456911
2008-09-05 07:22:17 51°19.836 2°40.813 17.3878 4.481306 34.4547 3.422087
2008-09-05 07:22:22 51°19.84 2°40.786 17.3875 4.481306 34.455381 3.387263
2008-09-05 07:22:27 51°19.844 2°40.759 17.3873 4.481306 34.456744 3.456911
2008-09-05 07:22:32 51°19.848 2°40.732 17.3901 4.481306 34.456744 3.456911
2008-09-05 07:22:37 51°19.852 2°40.705 17.3922 4.481202 34.456532 3.456911
2008-09-05 07:22:42 51°19.857 2°40.679 17.3915 4.481202 34.456532 3.352439
2008-09-05 07:22:47 51°19.861 2°40.652 17.3932 4.481202 34.45585 3.422087
2008-09-05 07:22:52 51°19.865 2°40.625 17.3965 4.481202 34.45585 3.422087
2008-09-05 07:22:57 51°19.868 2°40.598 17.398 4.481306 34.456744 3.456911
2008-09-05 07:23:02 51°19.872 2°40.571 17.4018 4.481306 34.456744 3.456911
2008-09-05 07:23:07 51°19.876 2°40.544 17.4015 4.481306 34.456063 3.456911
2008-09-05 07:23:12 51°19.88 2°40.517 17.4025 4.48141 34.455594 3.456911
2008-09-05 07:23:17 51°19.884 2°40.49 17.4037 4.481514 34.455806 3.456911
2008-09-05 07:23:22 51°19.888 2°40.463 17.4064 4.481721 34.456231 3.491735
2008-09-05 07:23:27 51°19.891 2°40.436 17.4054 4.481825 34.455081 3.456911
2008-09-05 07:23:32 51°19.895 2°40.409 17.4055 4.481825 34.455081 3.456911
2008-09-05 07:23:37 51°19.898 2°40.382 17.4063 4.482033 34.455506 3.596207
2008-09-05 07:23:42 51°19.902 2°40.356 17.4096 4.482136 34.455037 3.561383
2008-09-05 07:23:47 51°19.905 2°40.329 17.4101 4.482448 34.455675 3.491735
2008-09-05 07:23:52 51°19.909 2°40.302 17.4125 4.482552 34.455206 3.526559
2008-09-05 07:23:57 51°19.912 2°40.275 17.4135 4.482759 34.456312 3.456911
2008-09-05 07:24:02 51°19.916 2°40.248 17.4149 4.482759 34.456312 3.456911
2008-09-05 07:24:07 51°19.92 2°40.222 17.4155 4.482863 34.455844 3.422087
2008-09-05 07:24:12 51°19.923 2°40.195 17.4203 4.482967 34.456737 3.352439
2008-09-05 07:24:17 51°19.928 2°40.168 17.4203 4.482448 34.450907 3.28279
2008-09-05 07:24:22 51°19.931 2°40.142 17.4222 4.48224 34.447078 3.247966
2008-09-05 07:24:27 51°19.936 2°40.115 17.4231 4.482655 34.44929 3.247966
2008-09-05 07:24:32 51°19.94 2°40.089 17.4222 4.482655 34.44929 3.247966
2008-09-05 07:24:37 51°19.944 2°40.062 17.4243 4.482655 34.447928 3.178318
2008-09-05 07:24:42 51°19.948 2°40.035 17.4253 4.483174 34.450353 3.213142
2008-09-05 07:24:47 51°19.952 2°40.009 17.4264 4.482863 34.446311 3.213142
2008-09-05 07:24:52 51°19.955 2°39.982 17.429 4.483382 34.449416 3.143494
2008-09-05 07:24:57 51°19.959 2°39.955 17.4303 4.483382 34.448055 3.039022
2008-09-05 07:25:02 51°19.963 2°39.929 17.4318 4.483382 34.448055 3.039022
2008-09-05 07:25:07 51°19.967 2°39.902 17.4344 4.483693 34.450054 3.10867
2008-09-05 07:25:12 51°19.971 2°39.875 17.4352 4.484005 34.451372 3.178318
2008-09-05 07:25:17 51°19.975 2°39.849 17.438 4.484316 34.453371 3.073846
2008-09-05 07:25:22 51°19.979 2°39.822 17.4375 4.484316 34.451329 3.143494
2008-09-05 07:25:27 51°19.983 2°39.795 17.4394 4.484732 34.453541 3.143494
2008-09-05 07:25:32 51°19.987 2°39.768 17.439 4.484732 34.453541 3.143494
2008-09-05 07:25:37 51°19.991 2°39.741 17.4383 4.484939 34.453966 3.143494
2008-09-05 07:25:42 51°19.995 2°39.715 17.4388 4.484731 34.450819 3.10867
2008-09-05 07:25:47 51°19.999 2°39.688 17.4392 4.484835 34.44967 3.10867
2008-09-05 07:25:52 51°20.003 2°39.661 17.4414 4.485354 34.452775 3.178318
2008-09-05 07:25:57 51°20.007 2°39.634 17.4401 4.485043 34.448735 3.143494
2008-09-05 07:26:02 51°20.012 2°39.608 17.4407 4.485043 34.448735 3.143494
2008-09-05 07:26:07 51°20.016 2°39.581 17.4391 4.485562 34.451839 3.039022
2008-09-05 07:26:12 51°20.019 2°39.554 17.4407 4.485562 34.451839 3.073846
2008-09-05 07:26:17 51°20.024 2°39.527 17.4391 4.485562 34.451158 3.039022
2008-09-05 07:26:22 51°20.028 2°39.501 17.4401 4.48577 34.452264 2.969374
2008-09-05 07:26:27 51°20.032 2°39.474 17.4394 4.48525 34.447799 2.93455
2008-09-05 07:26:32 51°20.036 2°39.447 17.4395 4.48525 34.447799 2.93455
2008-09-05 07:26:37 51°20.04 2°39.42 17.4388 4.485354 34.448012 2.830078
2008-09-05 07:26:42 51°20.043 2°39.393 17.4378 4.485354 34.448692 2.690782
2008-09-05 07:26:47 51°20.047 2°39.367 17.4387 4.485458 34.449585 2.76043
2008-09-05 07:26:52 51°20.051 2°39.34 17.4362 4.485043 34.445333 2.690782
2008-09-05 07:26:57 51°20.054 2°39.314 17.4367 4.485666 34.450691 2.655957
2008-09-05 07:27:02 51°20.058 2°39.287 17.4352 4.485666 34.450691 2.655957
2008-09-05 07:27:07 51°20.061 2°39.26 17.4337 4.484939 34.445121 2.621133
2008-09-05 07:27:12 51°20.065 2°39.233 17.4323 4.485666 34.451371 2.586309
2008-09-05 07:27:17 51°20.069 2°39.206 17.4291 4.485873 34.453837 2.586309
2008-09-05 07:27:22 51°20.073 2°39.179 17.4303 4.485354 34.450053 2.516661
2008-09-05 07:27:27 51°20.077 2°39.152 17.4258 4.485666 34.452732 2.481837
2008-09-05 07:27:32 51°20.081 2°39.125 17.4256 4.485666 34.452732 2.481837
2008-09-05 07:27:37 51°20.085 2°39.099 17.4243 4.485147 34.448947 2.551485
2008-09-05 07:27:42 51°20.089 2°39.072 17.4222 4.485666 34.454773 2.412189
2008-09-05 07:27:47 51°20.093 2°39.045 17.4218 4.485147 34.450989 2.481837
2008-09-05 07:27:52 51°20.097 2°39.018 17.4204 4.484835 34.450351 2.447013
2008-09-05 07:27:57 51°20.1 2°38.991 17.4168 4.48577 34.460431 2.412189
2008-09-05 07:28:02 51°20.105 2°38.964 17.4161 4.48577 34.460431 2.412189
2008-09-05 07:28:07 51°20.108 2°38.937 17.4129 4.484731 34.45286 2.412189
2008-09-05 07:28:12 51°20.112 2°38.91 17.4131 4.484628 34.453328 2.412189
2008-09-05 07:28:17 51°20.116 2°38.883 17.4112 4.484835 34.456476 2.412189
2008-09-05 07:28:22 51°20.12 2°38.856 17.4104 4.484524 34.455158 2.377365
2008-09-05 07:28:27 51°20.124 2°38.829 17.4078 4.485562 34.465453 2.377365
2008-09-05 07:28:32 51°20.128 2°38.802 17.4091 4.485562 34.465453 2.377365
2008-09-05 07:28:37 51°20.132 2°38.775 17.4066 4.484524 34.458562 2.342541
2008-09-05 07:28:42 51°20.136 2°38.748 17.4075 4.483901 34.454564 2.377365
2008-09-05 07:28:47 51°20.139 2°38.721 17.4033 4.484109 34.457031 2.307717
2008-09-05 07:28:52 51°20.143 2°38.694 17.4044 4.483901 34.457287 2.342541
2008-09-05 07:28:57 51°20.146 2°38.667 17.4021 4.483901 34.458649 2.342541
2008-09-05 07:29:02 51°20.149 2°38.64 17.4038 4.483901 34.458649 2.342541
2008-09-05 07:29:07 51°20.153 2°38.613 17.4017 4.484213 34.462692 2.272893
2008-09-05 07:29:12 51°20.156 2°38.586 17.4001 4.484005 34.461586 2.307717
2008-09-05 07:29:17 51°20.16 2°38.559 17.4006 4.483797 34.46048 2.238069
2008-09-05 07:29:22 51°20.163 2°38.532 17.3998 4.483901 34.462736 2.238069
2008-09-05 07:29:27 51°20.168 2°38.505 17.4008 4.48359 34.461418 2.307717
2008-09-05 07:29:32 51°20.171 2°38.477 17.4007 4.48359 34.461418 2.307717
2008-09-05 07:29:37 51°20.176 2°38.451 17.4031 4.48442 34.469248 2.272893
2008-09-05 07:29:42 51°20.18 2°38.423 17.3968 4.483382 34.460993 2.272893
2008-09-05 07:29:47 51°20.184 2°38.396 17.3971 4.483382 34.462355 2.272893
2008-09-05 07:29:52 51°20.187 2°38.369 17.3969 4.483278 34.462143 2.307717
2008-09-05 07:29:57 51°20.191 2°38.342 17.3921 4.483382 34.463718 2.238069
2008-09-05 07:30:02 51°20.195 2°38.315 17.3948 4.483382 34.463718 2.238069
2008-09-05 07:30:07 51°20.199 2°38.288 17.3927 4.483175 34.461931 2.238069
2008-09-05 07:30:12 51°20.202 2°38.261 17.3918 4.482759 34.458356 2.272893
2008-09-05 07:30:17 51°20.205 2°38.235 17.3926 4.482863 34.460612 2.238069
2008-09-05 07:30:22 51°20.208 2°38.208 17.3925 4.482759 34.461081 2.203245
2008-09-05 07:30:27 51°20.212 2°38.181 17.3914 4.482759 34.461762 2.238069
2008-09-05 07:30:32 51°20.215 2°38.154 17.3912 4.482759 34.461762 2.238069
2008-09-05 07:30:37 51°20.219 2°38.127 17.3859 4.482967 34.464913 2.203245
2008-09-05 07:30:42 51°20.222 2°38.1 17.3873 4.482863 34.464701 2.168421
2008-09-05 07:30:47 51°20.226 2°38.073 17.3881 4.483382 34.470533 2.238069
2008-09-05 07:30:52 51°20.229 2°38.045 17.388 4.483798 34.474108 2.168421
2008-09-05 07:30:57 51°20.234 2°38.019 17.388 4.48224 34.461382 2.168421
2008-09-05 07:31:02 51°20.237 2°37.992 17.39 4.48224 34.461382 2.168421
2008-09-05 07:31:07 51°20.241 2°37.965 17.3898 4.482448 34.46317 2.203245
2008-09-05 07:31:12 51°20.245 2°37.938 17.3917 4.48224 34.462063 2.168421
2008-09-05 07:31:17 51°20.248 2°37.91 17.391 4.482656 34.467002 2.133597
2008-09-05 07:31:22 51°20.253 2°37.884 17.3911 4.482344 34.46432 2.098773
2008-09-05 07:31:27 51°20.256 2°37.857 17.3918 4.483175 34.472154 2.133597
2008-09-05 07:31:32 51°20.261 2°37.83 17.3907 4.483175 34.472154 2.133597
2008-09-05 07:31:37 51°20.264 2°37.803 17.3918 4.482344 34.46432 2.098773
2008-09-05 07:31:42 51°20.268 2°37.776 17.3945 4.482552 34.465427 2.133597
2008-09-05 07:31:47 51°20.272 2°37.748 17.3975 4.483279 34.471002 2.063949
2008-09-05 07:31:52 51°20.275 2°37.721 17.3952 4.482552 34.464064 2.063949
2008-09-05 07:31:57 51°20.279 2°37.694 17.3952 4.483694 34.473896 2.133597
2008-09-05 07:32:02 51°20.283 2°37.667 17.3949 4.483694 34.473896 2.133597
2008-09-05 07:32:07 51°20.286 2°37.64 17.3964 4.482448 34.462488 2.098773
2008-09-05 07:32:12 51°20.29 2°37.613 17.3943 4.483175 34.468745 2.063949
2008-09-05 07:32:17 51°20.294 2°37.586 17.3968 4.482136 34.458444 2.133597
2008-09-05 07:32:22 51°20.298 2°37.559 17.3989 4.48359 34.470276 2.063949
2008-09-05 07:32:27 51°20.302 2°37.532 17.3995 4.483382 34.467807 2.029124
2008-09-05 07:32:32 51°20.306 2°37.504 17.399 4.483382 34.467807 2.029124
2008-09-05 07:32:37 51°20.31 2°37.478 17.398 4.484524 34.477639 2.133597
2008-09-05 07:32:42 51°20.314 2°37.451 17.3973 4.483901 34.472276 2.133597
2008-09-05 07:32:47 51°20.318 2°37.424 17.3989 4.483071 34.465125 2.098773
2008-09-05 07:32:52 51°20.322 2°37.397 17.3987 4.483175 34.465338 2.063949
2008-09-05 07:32:57 51°20.326 2°37.37 17.3983 4.483175 34.463975 2.063949
2008-09-05 07:33:02 51°20.33 2°37.343 17.4014 4.483175 34.463975 2.063949
2008-09-05 07:33:07 51°20.334 2°37.316 17.3976 4.483694 34.467762 2.098773
2008-09-05 07:33:12 51°20.337 2°37.289 17.397 4.483694 34.468443 2.063949
2008-09-05 07:33:17 51°20.341 2°37.261 17.3978 4.483901 34.470231 2.133597
2008-09-05 07:33:22 51°20.345 2°37.234 17.3984 4.48442 34.4747 2.063949
2008-09-05 07:33:27 51°20.349 2°37.207 17.3965 4.484109 34.472019 2.063949
2008-09-05 07:33:32 51°20.352 2°37.18 17.3949 4.484109 34.472019 2.063949
2008-09-05 07:33:37 51°20.356 2°37.153 17.3958 4.483486 34.466656 2.098773
2008-09-05 07:33:42 51°20.36 2°37.127 17.3947 4.484732 34.477381 2.098773
2008-09-05 07:33:47 51°20.363 2°37.1 17.3943 4.483694 34.468443 2.098773
2008-09-05 07:33:52 51°20.367 2°37.073 17.3944 4.48359 34.46755 2.098773
2008-09-05 07:33:57 51°20.372 2°37.046 17.3932 4.484524 34.475594 2.029124
2008-09-05 07:34:02 51°20.376 2°37.019 17.3951 4.484524 34.475594 2.029124
2008-09-05 07:34:07 51°20.38 2°36.992 17.3939 4.484524 34.476275 2.063949
2008-09-05 07:34:12 51°20.385 2°36.966 17.3942 4.48494 34.480532 2.098773
2008-09-05 07:34:17 51°20.389 2°36.939 17.394 4.483694 34.470488 2.029124
2008-09-05 07:34:22 51°20.394 2°36.912 17.3956 4.485251 34.483896 2.098773
2008-09-05 07:34:27 51°20.398 2°36.885 17.3976 4.485355 34.485471 1.9943
2008-09-05 07:34:32 51°20.403 2°36.859 17.3976 4.485355 34.485471 1.9943
2008-09-05 07:34:37 51°20.408 2°36.832 17.3965 4.484836 34.481002 2.063949
2008-09-05 07:34:42 51°20.413 2°36.805 17.3936 4.484213 34.475639 2.063949
2008-09-05 07:34:47 51°20.418 2°36.779 17.3977 4.48359 34.470276 2.063949
2008-09-05 07:34:52 51°20.423 2°36.752 17.3973 4.48577 34.489047 2.063949
2008-09-05 07:34:57 51°20.427 2°36.725 17.3995 4.486082 34.491047 2.063949
2008-09-05 07:35:02 51°20.432 2°36.699 17.3965 4.486082 34.491047 2.063949
2008-09-05 07:35:07 51°20.437 2°36.672 17.3974 4.485978 34.489471 2.029124
2008-09-05 07:35:12 51°20.442 2°36.645 17.3969 4.486185 34.491259 2.098773
2008-09-05 07:35:17 51°20.447 2°36.619 17.3937 4.486289 34.492153 2.029124
2008-09-05 07:35:22 51°20.452 2°36.592 17.3971 4.486393 34.493047 1.9943
2008-09-05 07:35:27 51°20.458 2°36.566 17.3962 4.486393 34.492365 1.9943
2008-09-05 07:35:32 51°20.463 2°36.539 17.3957 4.486393 34.492365 1.9943
2008-09-05 07:35:37 51°20.468 2°36.513 17.3991 4.486601 34.494152 1.959476
2008-09-05 07:35:42 51°20.473 2°36.487 17.3953 4.486601 34.49347 1.959476
2008-09-05 07:35:47 51°20.478 2°36.46 17.3969 4.486601 34.494152 2.029124
2008-09-05 07:35:52 51°20.482 2°36.433 17.3964 4.486808 34.496622 1.959476
2008-09-05 07:35:57 51°20.488 2°36.407 17.3995 4.486601 34.494834 2.029124
2008-09-05 07:36:02 51°20.493 2°36.38 17.4002 4.486601 34.494834 2.029124
2008-09-05 07:36:07 51°20.498 2°36.354 17.3961 4.486808 34.496622 2.029124
2008-09-05 07:36:12 51°20.503 2°36.327 17.399 4.486808 34.49594 1.9943
2008-09-05 07:36:17 51°20.508 2°36.301 17.3967 4.486705 34.495728 1.959476
2008-09-05 07:36:22 51°20.513 2°36.274 17.3998 4.486808 34.496622 2.029124
2008-09-05 07:36:27 51°20.517 2°36.248 17.3995 4.486912 34.496834 1.9943
2008-09-05 07:36:32 51°20.522 2°36.221 17.3994 4.486912 34.496834 1.9943
2008-09-05 07:36:37 51°20.527 2°36.195 17.398 4.486704 34.494364 2.029124
2008-09-05 07:36:42 51°20.532 2°36.168 17.3967 4.486808 34.495258 1.9943
2008-09-05 07:36:47 51°20.537 2°36.142 17.3974 4.486912 34.496152 2.029124
2008-09-05 07:36:52 51°20.542 2°36.115 17.3949 4.486912 34.496834 1.9943
2008-09-05 07:36:57 51°20.546 2°36.088 17.3969 4.487016 34.497728 1.9943
2008-09-05 07:37:02 51°20.551 2°36.061 17.3965 4.487016 34.497728 1.9943
2008-09-05 07:37:07 51°20.556 2°36.035 17.4001 4.48712 34.497258 1.959476
2008-09-05 07:37:12 51°20.56 2°36.008 17.399 4.487224 34.498834 1.9943
2008-09-05 07:37:17 51°20.565 2°35.981 17.398 4.487224 34.498834 1.9943
2008-09-05 07:37:22 51°20.57 2°35.954 17.3987 4.48712 34.498622 1.959476
2008-09-05 07:37:27 51°20.574 2°35.927 17.3965 4.487016 34.49841 1.924652
2008-09-05 07:37:32 51°20.579 2°35.9 17.3982 4.487016 34.49841 1.924652
2008-09-05 07:37:37 51°20.584 2°35.873 17.3987 4.487327 34.50041 1.9943
2008-09-05 07:37:42 51°20.589 2°35.846 17.3991 4.487224 34.499516 2.029124
2008-09-05 07:37:47 51°20.594 2°35.819 17.398 4.487224 34.498834 1.959476
2008-09-05 07:37:52 51°20.599 2°35.792 17.3988 4.487327 34.499727 1.924652
2008-09-05 07:37:57 51°20.604 2°35.766 17.3957 4.487327 34.499727 1.959476
2008-09-05 07:38:02 51°20.609 2°35.739 17.3979 4.487327 34.499727 1.959476
2008-09-05 07:38:07 51°20.614 2°35.712 17.3978 4.487327 34.499727 1.959476
2008-09-05 07:38:12 51°20.619 2°35.685 17.3997 4.487431 34.499939 1.924652
2008-09-05 07:38:17 51°20.624 2°35.658 17.3959 4.487431 34.500621 1.959476
2008-09-05 07:38:22 51°20.629 2°35.632 17.3978 4.487327 34.499727 1.9943
2008-09-05 07:38:27 51°20.634 2°35.605 17.3957 4.487327 34.50041 1.959476
2008-09-05 07:38:32 51°20.638 2°35.578 17.3968 4.487327 34.50041 1.959476
2008-09-05 07:38:37 51°20.643 2°35.551 17.3956 4.487327 34.50041 2.029124
2008-09-05 07:38:42 51°20.647 2°35.524 17.3964 4.487431 34.500621 1.9943
2008-09-05 07:38:47 51°20.652 2°35.497 17.3995 4.487431 34.500621 1.9943
2008-09-05 07:38:52 51°20.656 2°35.471 17.3989 4.487639 34.502409 1.959476
2008-09-05 07:38:57 51°20.661 2°35.444 17.3986 4.487535 34.502197 1.9943
2008-09-05 07:39:02 51°20.665 2°35.417 17.396 4.487535 34.502197 1.9943
2008-09-05 07:39:07 51°20.669 2°35.39 17.3974 4.487535 34.502197 2.029124